OK2ZAW-21 Weather Reports


Display with metric or nautical units.
time (UTC)temp
F
wind
direction
speed
MPH
gust
MPH
rain 1hr
in
rain 24hr
in
rain mn
in
humidity
%
barometer
mb
20260506180121 62 0 0.0 0.0 0.00 0.00 0.00 70 1006.6
20260506175619 62 0 0.0 0.0 0.00 0.00 0.00 69 1006.5
20260506175613 62 0 0.0 0.0 0.00 0.00 0.00 69 1006.5
20260506175111 63 0 0.0 0.0 0.00 0.00 0.00 66 1006.5
20260506175105 63 0 0.0 0.0 0.00 0.00 0.00 66 1006.5
20260506174602 63 0 0.0 0.0 0.00 0.00 0.00 65 1006.5
20260506174556 63 0 0.0 0.0 0.00 0.00 0.00 65 1006.5
20260506174054 63 100 6.0 8.0 0.00 0.00 0.00 63 1006.4
20260506174048 63 100 6.0 8.0 0.00 0.00 0.00 63 1006.4
20260506173546 63 106 7.0 10.0 0.00 0.00 0.00 63 1006.5
20260506173540 63 106 7.0 10.0 0.00 0.00 0.00 63 1006.5
20260506173037 64 114 7.0 10.0 0.00 0.00 0.00 61 1006.5
20260506173031 64 114 7.0 10.0 0.00 0.00 0.00 61 1006.5
20260506172523 64 100 8.0 10.0 0.00 0.00 0.00 60 1006.5
20260506172020 64 102 7.0 12.0 0.00 0.00 0.00 59 1006.6
20260506172014 64 102 7.0 12.0 0.00 0.00 0.00 59 1006.6
20260506171506 64 104 7.0 11.0 0.00 0.00 0.00 58 1006.6
20260506171003 65 106 7.0 9.0 0.00 0.00 0.00 57 1006.6
20260506170957 65 106 7.0 9.0 0.00 0.00 0.00 57 1006.6
20260506170448 65 119 7.0 10.0 0.00 0.00 0.00 56 1006.5
20260506165940 66 114 6.0 10.0 0.00 0.00 0.00 55 1006.5
20260506165437 0 119 6.0 10.0 0.00 0.00 0.00
20260506165431 67 119 6.0 10.0 0.00 0.00 0.00 53 1006.7
20260506164928 67 134 7.0 13.0 0.00 0.00 0.00 52 1006.7
20260506164922 67 134 7.0 13.0 0.00 0.00 0.00 52 1006.7
20260506164413 67 106 8.0 14.0 0.00 0.00 0.00 51 1006.8
20260506163904 67 123 6.0 10.0 0.00 0.00 0.00 51 1006.7
20260506162847 68 121 8.0 14.0 0.00 0.00 0.00 49 1006.7
20260506162344 68 132 8.0 12.0 0.00 0.00 0.00 49 1006.8
20260506162338 68 132 8.0 12.0 0.00 0.00 0.00 49 1006.8
20260506161835 68 111 7.0 13.0 0.00 0.00 0.00 49 1006.7
20260506161829 68 111 7.0 13.0 0.00 0.00 0.00 49 1006.7
20260506161320 69 125 7.0 10.0 0.00 0.00 0.00 49 1006.8
20260506160818 69 128 6.0 0.0 0.00 0.00 0.00 49 1006.9
20260506160811 69 128 6.0 0.0 0.00 0.00 0.00 49 1006.9
20260506160302 68 108 6.0 8.0 0.00 0.00 0.00 49 1007.0
20260506155800 68 114 7.0 9.0 0.00 0.00 0.00 51 1007.0
20260506155753 68 114 7.0 9.0 0.00 0.00 0.00 51 1007.0
20260506155245 68 120 5.0 6.0 0.00 0.00 0.00 51 1007.2
20260506154736 68 114 6.0 9.0 0.00 0.00 0.00 50 1007.3
20260506154234 67 133 7.0 10.0 0.00 0.00 0.00 50 1007.4
20260506154227 67 133 7.0 10.0 0.00 0.00 0.00 50 1007.4
20260506153725 67 0 0.0 0.0 0.00 0.00 0.00 51 1007.6
20260506153719 67 0 0.0 0.0 0.00 0.00 0.00 51 1007.6
20260506153210 68 0 0.0 0.0 0.00 0.00 0.00 49 1007.5
20260506152702 68 0 0.0 0.0 0.00 0.00 0.00 49 1007.8
20260506152159 68 0 0.0 0.0 0.00 0.00 0.00 49 1007.6
20260506152153 68 0 0.0 0.0 0.00 0.00 0.00 49 1007.6
20260506151650 70 0 0.0 0.0 0.00 0.00 0.00 48 1007.7
20260506151644 70 0 0.0 0.0 0.00 0.00 0.00 48 1007.7
20260506151135 70 0 0.0 0.0 0.00 0.00 0.00 49 1007.8
20260506150627 70 0 0.0 0.0 0.00 0.00 0.00 50 1007.8
20260506150118 70 0 0.0 0.0 0.00 0.00 0.00 49 1007.8
20260506145951 70 0 0.0 0.0 0.00 0.00 0.00 49 1007.8
20260506145921 70 0 0.0 0.0 0.00 0.00 0.00 50 1007.9
20260506145849 70 0 0.0 0.0 0.00 0.00 0.00 49 1007.8
20260506145821 70 0 0.0 0.0 0.00 0.00 0.00 49 1007.8
20260506145815 70 0 0.0 0.0 0.00 0.00 0.00 49 1007.8
20260506145743 71 0 0.0 0.0 0.00 0.00 0.00 48 1007.9
20260506145709 71 0 0.0 0.0 0.00 0.00 0.00 48 1007.7
20260506145703 71 0 0.0 0.0 0.00 0.00 0.00 48 1007.7
20260506145629 71 0 0.0 0.0 0.00 0.00 0.00 48 1007.9
20260506145555 71 0 0.0 0.0 0.00 0.00 0.00 49 1007.9
20260506145549 71 0 0.0 0.0 0.00 0.00 0.00 49 1007.9
20260506145503 71 0 0.0 0.0 0.00 0.00 0.00 49 1007.9
20260506145456 71 0 0.0 0.0 0.00 0.00 0.00 49 1007.9
20260506145427 71 0 0.0 0.0 0.00 0.00 0.00 49 1007.9
20260506145421 71 0 0.0 0.0 0.00 0.00 0.00 49 1007.9
20260506145356 71 0 0.0 0.0 0.00 0.00 0.00 48 1008.0
20260506145339 71 0 0.0 0.0 0.00 0.00 0.00 48 1007.9
20260506145332 71 0 0.0 0.0 0.00 0.00 0.00 48 1007.9
20260506145306 71 0 0.0 0.0 0.00 0.00 0.00 48 1008.0
20260506145245 71 0 0.0 0.0 0.00 0.00 0.00 48 1007.9
20260506145238 71 0 0.0 0.0 0.00 0.00 0.00 48 1007.9
20260506145211 71 0 0.0 0.0 0.00 0.00 0.00 48 1008.0
20260506145204 71 0 0.0 0.0 0.00 0.00 0.00 48 1008.0
20260506145134 71 0 0.0 0.0 0.00 0.00 0.00 48 1007.8
20260506145113 71 0 0.0 0.0 0.00 0.00 0.00 48 1008.0
20260506145107 71 0 0.0 0.0 0.00 0.00 0.00 48 1008.0
20260506145043 71 0 0.0 0.0 0.00 0.00 0.00 48 1008.0
20260506145036 71 0 0.0 0.0 0.00 0.00 0.00 48 1008.0
20260506145022 71 0 0.0 0.0 0.00 0.00 0.00 48 1008.1
20260506145015 71 0 0.0 0.0 0.00 0.00 0.00 48 1008.1
20260506145008 71 0 0.0 0.0 0.00 0.00 0.00 48 1008.1
20260506144936 71 0 0.0 0.0 0.00 0.00 0.00 48 1008.2
20260506144904 71 0 0.0 0.0 0.00 0.00 0.00 49 1008.1
20260506144834 71 0 0.0 0.0 0.00 0.00 0.00 48 1008.0
20260506144804 71 0 0.0 0.0 0.00 0.00 0.00 49 1008.1
20260506144732 71 0 0.0 0.0 0.00 0.00 0.00 49 1008.1
20260506144712 71 0 0.0 0.0 0.00 0.00 0.00 49 1008.2
20260506144706 71 0 0.0 0.0 0.00 0.00 0.00 49 1008.2
20260506144644 71 0 0.0 0.0 0.00 0.00 0.00 49 1007.9
20260506144638 71 0 0.0 0.0 0.00 0.00 0.00 49 1007.9
20260506144612 71 0 0.0 0.0 0.00 0.00 0.00 48
20260506144606 71 0 0.0 0.0 0.00 0.00 0.00 48 1008.1
20260506144536 71 0 0.0 0.0 0.00 0.00 0.00 48 1008.0
20260506144514 71 0 0.0 0.0 0.00 0.00 0.00 48 1008.0
20260506144444 71 0 0.0 0.0 0.00 0.00 0.00 48 1008.0
20260506144438 71 0 0.0 0.0 0.00 0.00 0.00 48 1008.0
20260506144416 71 0 0.0 0.0 0.00 0.00 0.00 47 1008.2
20260506144410 71 0 0.0 0.0 0.00 0.00 0.00 47 1008.2
20260506144340 71 0 0.0 0.0 0.00 0.00 0.00 48 1008.0
20260506144312 71 0 0.0 0.0 0.00 0.00 0.00 48 1008.2
20260506144306 71 0 0.0 0.0 0.00 0.00 0.00 48 1008.2
20260506144234 71 0 0.0 0.0 0.00 0.00 0.00 47 1008.2
20260506144209 71 0 0.0 0.0 0.00 0.00 0.00 46 1008.2
20260506144202 71 0 0.0 0.0 0.00 0.00 0.00 46 1008.2
20260506144143 71 0 0.0 0.0 0.00 0.00 0.00 46 1008.1
20260506144136 71 0 0.0 0.0 0.00 0.00 0.00 46 1008.1
20260506144112 71 0 0.0 0.0 0.00 0.00 0.00 47 1008.2
20260506144106 71 0 0.0 0.0 0.00 0.00 0.00 47 1008.2
20260506144042 71 0 0.0 0.0 0.00 0.00 0.00 49 1008.2
20260506144037 71 0 0.0 0.0 0.00 0.00 0.00 49 1008.2
20260506144012 71 0 0.0 0.0 0.00 0.00 0.00 49 1008.2
20260506144006 71 0 0.0 0.0 0.00 0.00 0.00 49 1008.2
20260506143934 71 0 0.0 0.0 0.00 0.00 0.00 49 1008.3
20260506143904 70 0 0.0 0.0 0.00 0.00 0.00 48 1008.2
20260506143838 70 0 0.0 0.0 0.00 0.00 0.00 50 1008.3
20260506143808 70 0 0.0 0.0 0.00 0.00 0.00 50 1008.3
20260506143802 70 0 0.0 0.0 0.00 0.00 0.00 50 1008.3
20260506143728 70 0 0.0 0.0 0.00 0.00 0.00 51 1008.3
20260506143658 69 0 0.0 0.0 0.00 0.00 0.00 52 1008.1
20260506143652 69 0 0.0 0.0 0.00 0.00 0.00 52 1008.1
20260506143626 69 0 0.0 0.0 0.00 0.00 0.00 52 1008.2
20260506143600 69 0 0.0 0.0 0.00 0.00 0.00 51 1008.2
20260506143554 69 0 0.0 0.0 0.00 0.00 0.00 51 1008.2
20260506143532 69 0 0.0 0.0 0.00 0.00 0.00 52 1008.2
20260506143526 69 0 0.0 0.0 0.00 0.00 0.00 52 1008.2
20260506143454 69 0 0.0 0.0 0.00 0.00 0.00 52 1008.2
20260506143448 69 0 0.0 0.0 0.00 0.00 0.00 52 1008.2
20260506143420 69 0 0.0 0.0 0.00 0.00 0.00 52 1008.3
20260506143342 68 0 0.0 0.0 0.00 0.00 0.00 53 1008.2
20260506143302 68 0 0.0 0.0 0.00 0.00 0.00 53 1008.2
20260506143256 68 0 0.0 0.0 0.00 0.00 0.00 53 1008.2
20260506143222 68 0 0.0 0.0 0.00 0.00 0.00 52 1008.3
20260506143152 68 0 0.0 0.0 0.00 0.00 0.00 52 1008.3
20260506143146 68 0 0.0 0.0 0.00 0.00 0.00 52 1008.3
20260506143114 68 0 0.0 0.0 0.00 0.00 0.00 52 1008.2
20260506143042 68 0 0.0 0.0 0.00 0.00 0.00 51 1008.2
20260506143022 68 0 0.0 0.0 0.00 0.00 0.00 51 1008.3
20260506143016 68 0 0.0 0.0 0.00 0.00 0.00 51 1008.3
20260506142942 69 0 0.0 0.0 0.00 0.00 0.00 50 1008.2
20260506142918 69 0 0.0 0.0 0.00 0.00 0.00 49 1008.3
20260506142844 69 0 0.0 0.0 0.00 0.00 0.00 49 1008.3
20260506142824 69 0 0.0 0.0 0.00 0.00 0.00 49 1008.4
20260506142750 69 0 0.0 0.0 0.00 0.00 0.00 49 1008.4
20260506142720 69 0 0.0 0.0 0.00 0.00 0.00 50 1008.4
20260506142648 69 0 0.0 0.0 0.00 0.00 0.00 49 1008.4
20260506142628 69 0 0.0 0.0 0.00 0.00 0.00 49 1008.5
20260506142622 69 0 0.0 0.0 0.00 0.00 0.00 49 1008.5
20260506142600 69 0 0.0 0.0 0.00 0.00 0.00 49 1008.3
20260506142554 69 0 0.0 0.0 0.00 0.00 0.00 49 1008.3
20260506142520 69 0 0.0 0.0 0.00 0.00 0.00 48 1008.4
20260506142458 70 0 0.0 0.0 0.00 0.00 0.00 47 1008.4
20260506142452 70 0 0.0 0.0 0.00 0.00 0.00 47 1008.4
20260506142417 70 0 0.0 0.0 0.00 0.00 0.00 47 1008.4
20260506142332 70 0 0.0 0.0 0.00 0.00 0.00 46 1008.4
20260506142302 70 0 0.0 0.0 0.00 0.00 0.00 47 1008.5
20260506142236 70 0 0.0 0.0 0.00 0.00 0.00 47 1008.4
20260506142206 70 0 0.0 0.0 0.00 0.00 0.00 49 1008.4
20260506142140 71 0 0.0 0.0 0.00 0.00 0.00 48 1008.4
20260506142112 71 0 0.0 0.0 0.00 0.00 0.00 48 1008.5
20260506142047 71 0 0.0 0.0 0.00 0.00 0.00 48 1008.3
20260506142015 71 0 0.0 0.0 0.00 0.00 0.00 48 1008.4
20260506141943 71 0 0.0 0.0 0.00 0.00 0.00 48 1008.3
20260506141911 72 0 0.0 0.0 0.00 0.00 0.00 48 1008.3
20260506141845 72 0 0.0 0.0 0.00 0.00 0.00 49 1008.5
20260506141817 72 0 0.0 0.0 0.00 0.00 0.00 50 1008.4
20260506141755 72 0 0.0 0.0 0.00 0.00 0.00 49 1008.3
20260506141647 71 0 0.0 0.0 0.00 0.00 0.00 49 1008.4
20260506141613 71 0 0.0 0.0 0.00 0.00 0.00 50 1008.5
20260506141539 70 0 0.0 0.0 0.00 0.00 0.00 50 1008.4
20260506141509 70 0 0.0 0.0 0.00 0.00 0.00 50 1008.3
20260506141428 70 0 0.0 0.0 0.00 0.00 0.00 50 1008.4
20260506141357 70 0 0.0 0.0 0.00 0.00 0.00 50 1008.4
20260506141331 70 0 0.0 0.0 0.00 0.00 0.00 50 1008.3
20260506141255 70 0 0.0 0.0 0.00 0.00 0.00 51 1008.4
20260506141221 70 0 0.0 0.0 0.00 0.00 0.00 51 1008.4
20260506141147 69 0 0.0 0.0 0.00 0.00 0.00 52 1008.5
20260506141111 69 0 0.0 0.0 0.00 0.00 0.00 53 1008.5
20260506141035 69 0 0.0 0.0 0.00 0.00 0.00 53 1008.4
20260506141014 68 0 0.0 0.0 0.00 0.00 0.00 53 1008.4
20260506141007 68 0 0.0 0.0 0.00 0.00 0.00 53 1008.4
20260506140937 68 0 0.0 0.0 0.00 0.00 0.00 53 1008.5
20260506140931 68 0 0.0 0.0 0.00 0.00 0.00 53 1008.5
20260506140859 68 0 0.0 0.0 0.00 0.00 0.00 54 1008.5
20260506140825 67 0 0.0 0.0 0.00 0.00 0.00 54 1008.5
20260506140749 67 0 0.0 0.0 0.00 0.00 0.00 54 1008.4
20260506140713 67 0 0.0 0.0 0.00 0.00 0.00 54 1008.5
20260506140645 67 0 0.0 0.0 0.00 0.00 0.00 54 1008.5
20260506140639 67 0 0.0 0.0 0.00 0.00 0.00 54 1008.5
20260506140603 67 0 0.0 0.0 0.00 0.00 0.00 53 1008.5
20260506140541 67 0 0.0 0.0 0.00 0.00 0.00 54 1008.5
20260506140535 67 0 0.0 0.0 0.00 0.00 0.00 54 1008.5
20260506140508 67 0 0.0 0.0 0.00 0.00 0.00 53 1008.6
20260506140501 67 0 0.0 0.0 0.00 0.00 0.00 53 1008.6
20260506140443 67 0 0.0 0.0 0.00 0.00 0.00 53 1008.6
20260506140419 67 0 0.0 0.0 0.00 0.00 0.00 53 1008.6
20260506140413 67 0 0.0 0.0 0.00 0.00 0.00 53 1008.6
20260506140353 67 0 0.0 0.0 0.00 0.00 0.00 54 1008.6
20260506140321 67 0 0.0 0.0 0.00 0.00 0.00 54 1008.6
20260506140249 67 0 0.0 0.0 0.00 0.00 0.00 53 1008.4
20260506140219 67 0 0.0 0.0 0.00 0.00 0.00 53 1008.5
20260506140213 67 0 0.0 0.0 0.00 0.00 0.00 53 1008.5
20260506140131 67 0 0.0 0.0 0.00 0.00 0.00 53 1008.6
20260506140049 67 0 0.0 0.0 0.00 0.00 0.00 53 1008.5
20260506140043 67 0 0.0 0.0 0.00 0.00 0.00 53 1008.5
20260506140013 67 0 0.0 0.0 0.00 0.00 0.00 54 1008.6
20260506140007 67 0 0.0 0.0 0.00 0.00 0.00 54 1008.6
20260506135943 67 0 0.0 0.0 0.00 0.00 0.00 53 1008.6
20260506135917 67 0 0.0 0.0 0.00 0.00 0.00 53 1008.6
20260506135911 67 0 0.0 0.0 0.00 0.00 0.00 53 1008.6
20260506135847 67 0 0.0 0.0 0.00 0.00 0.00 53 1008.5
20260506135823 67 0 0.0 0.0 0.00 0.00 0.00 54 1008.6
20260506135755 67 0 0.0 0.0 0.00 0.00 0.00 54 1008.6
20260506135749 67 0 0.0 0.0 0.00 0.00 0.00 54 1008.6
20260506135725 67 0 0.0 0.0 0.00 0.00 0.00 53 1008.6
20260506135719 67 0 0.0 0.0 0.00 0.00 0.00 53 1008.6
20260506135657 67 0 0.0 0.0 0.00 0.00 0.00 54 1008.7
20260506135651 67 0 0.0 0.0 0.00 0.00 0.00 54 1008.7
20260506135621 67 0 0.0 0.0 0.00 0.00 0.00 53 1008.6
20260506135547 67 0 0.0 0.0 0.00 0.00 0.00 53 1008.6
20260506135524 67 0 0.0 0.0 0.00 0.00 0.00 53 1008.7
20260506135517 67 0 0.0 0.0 0.00 0.00 0.00 53 1008.7
20260506135447 67 0 0.0 0.0 0.00 0.00 0.00 53 1008.6
20260506135421 67 0 0.0 0.0 0.00 0.00 0.00 53 1008.6
20260506135415 67 0 0.0 0.0 0.00 0.00 0.00 53 1008.6
20260506135357 67 0 0.0 0.0 0.00 0.00 0.00 53 1008.7
20260506135351 67 0 0.0 0.0 0.00 0.00 0.00 53 1008.7
20260506135335 67 0 0.0 0.0 0.00 0.00 0.00 53 1008.6
20260506135329 67 0 0.0 0.0 0.00 0.00 0.00 53 1008.6
20260506135243 67 0 0.0 0.0 0.00 0.00 0.00 53 1008.7
20260506135238 67 0 0.0 0.0 0.00 0.00 0.00 53 1008.7
20260506135207 67 0 0.0 0.0 0.00 0.00 0.00 53 1008.7
20260506135143 67 0 0.0 0.0 0.00 0.00 0.00 52 1008.7
20260506135137 67 0 0.0 0.0 0.00 0.00 0.00 52 1008.7
20260506135111 67 0 0.0 0.0 0.00 0.00 0.00 51 1008.7
20260506135105 67 0 0.0 0.0 0.00 0.00 0.00 51 1008.7
20260506135035 67 0 0.0 0.0 0.00 0.00 0.00 52 1008.7
20260506135029 67 0 0.0 0.0 0.00 0.00 0.00 52 1008.7
20260506135001 67 0 0.0 0.0 0.00 0.00 0.00 51 1008.7
20260506134955 67 0 0.0 0.0 0.00 0.00 0.00 51 1008.7
20260506134927 68 0 0.0 0.0 0.00 0.00 0.00 51 1008.8
20260506134921 68 0 0.0 0.0 0.00 0.00 0.00 51 1008.8
20260506134845 68 0 0.0 0.0 0.00 0.00 0.00 51 1008.7
20260506134839 68 0 0.0 0.0 0.00 0.00 0.00 51 1008.7
20260506134807 68 0 0.0 0.0 0.00 0.00 0.00 50 1008.6
20260506134737 68 0 0.0 0.0 0.00 0.00 0.00 50 1008.7
20260506134731 68 0 0.0 0.0 0.00 0.00 0.00 50 1008.7
20260506134705 68 0 0.0 0.0 0.00 0.00 0.00 51 1008.7
20260506134658 68 0 0.0 0.0 0.00 0.00 0.00 51 1008.7
20260506134620 68 0 0.0 0.0 0.00 0.00 0.00 50 1008.7
20260506134555 68 0 0.0 0.0 0.00 0.00 0.00 50 1008.7
20260506134548 68 0 0.0 0.0 0.00 0.00 0.00 50 1008.7
20260506134517 68 0 0.0 0.0 0.00 0.00 0.00 50 1008.8
20260506134510 68 0 0.0 0.0 0.00 0.00 0.00 50 1008.8
20260506134439 68 0 0.0 0.0 0.00 0.00 0.00 50 1008.8
20260506134412 68 0 0.0 0.0 0.00 0.00 0.00 52 1008.7
20260506134343 68 0 0.0 0.0 0.00 0.00 0.00 52 1008.8
20260506134312 68 0 0.0 0.0 0.00 0.00 0.00 51 1008.7
20260506134240 68 0 0.0 0.0 0.00 0.00 0.00 52 1008.6
20260506134144 69 0 0.0 0.0 0.00 0.00 0.00 51 1008.7
20260506134118 69 0 0.0 0.0 0.00 0.00 0.00 51 1008.7
20260506134112 69 0 0.0 0.0 0.00 0.00 0.00 51 1008.7
20260506134020 69 0 0.0 0.0 0.00 0.00 0.00 51 1008.7
20260506134014 69 0 0.0 0.0 0.00 0.00 0.00 51 1008.7
20260506133952 69 0 0.0 0.0 0.00 0.00 0.00 52 1008.8
20260506133948 69 0 0.0 0.0 0.00 0.00 0.00 52 1008.8
20260506133923 69 0 0.0 0.0 0.00 0.00 0.00 52 1008.8
20260506133917 69 0 0.0 0.0 0.00 0.00 0.00 52 1008.8
20260506133842 69 0 0.0 0.0 0.00 0.00 0.00 51 1008.8
20260506133820 69 0 0.0 0.0 0.00 0.00 0.00 52 1008.7
20260506133814 69 0 0.0 0.0 0.00 0.00 0.00 52 1008.7
20260506133740 69 0 0.0 0.0 0.00 0.00 0.00 53 1008.9
20260506133715 68 0 0.0 0.0 0.00 0.00 0.00 54 1008.9
20260506133708 68 0 0.0 0.0 0.00 0.00 0.00 54 1008.9
20260506133632 68 0 0.0 0.0 0.00 0.00 0.00 54 1008.8
20260506133626 68 0 0.0 0.0 0.00 0.00 0.00 54 1008.8
20260506133554 67 0 0.0 0.0 0.00 0.00 0.00 53 1008.9
20260506133518 67 0 0.0 0.0 0.00 0.00 0.00 54 1008.9
20260506133512 67 0 0.0 0.0 0.00 0.00 0.00 54 1008.9
20260506133444 67 0 0.0 0.0 0.00 0.00 0.00 55 1008.9
20260506133438 67 0 0.0 0.0 0.00 0.00 0.00 55 1008.9
20260506133402 67 0 0.0 0.0 0.00 0.00 0.00 55 1008.8
20260506133338 67 0 0.0 0.0 0.00 0.00 0.00 55 1009.0
20260506133332 67 0 0.0 0.0 0.00 0.00 0.00 55 1009.0
20260506133304 66 0 0.0 0.0 0.00 0.00 0.00 56 1009.0
20260506133258 66 0 0.0 0.0 0.00 0.00 0.00 56 1009.0
20260506133228 66 0 0.0 0.0 0.00 0.00 0.00 57 1009.0
20260506133154 66 0 0.0 0.0 0.00 0.00 0.00 56 1009.0
20260506133122 66 0 0.0 0.0 0.00 0.00 0.00 56 1009.0
20260506133050 66 0 0.0 0.0 0.00 0.00 0.00 56 1009.0
20260506133022 66 0 0.0 0.0 0.00 0.00 0.00 56 1009.0
20260506133016 66 0 0.0 0.0 0.00 0.00 0.00 56 1009.0
20260506132952 66 0 0.0 0.0 0.00 0.00 0.00 57 1009.0
20260506132946 66 0 0.0 0.0 0.00 0.00 0.00 57 1009.0
20260506132918 66 0 0.0 0.0 0.00 0.00 0.00 56 1009.0
20260506132912 66 0 0.0 0.0 0.00 0.00 0.00 56 1009.0
20260506132816 66 0 0.0 0.0 0.00 0.00 0.00 56 1009.0
20260506132812 66 0 0.0 0.0 0.00 0.00 0.00 56 1009.0
20260506132746 66 0 0.0 0.0 0.00 0.00 0.00 56 1009.0
20260506132740 66 0 0.0 0.0 0.00 0.00 0.00 56 1009.0
20260506132708 66 0 0.0 0.0 0.00 0.00 0.00 56 1009.0
20260506132624 66 0 0.0 0.0 0.00 0.00 0.00 56 1008.9
20260506132618 66 0 0.0 0.0 0.00 0.00 0.00 56 1008.9
20260506132532 66 0 0.0 0.0 0.00 0.00 0.00 56 1009.0
20260506132448 66 0 0.0 0.0 0.00 0.00 0.00 56 1009.0
20260506132442 66 0 0.0 0.0 0.00 0.00 0.00 56 1009.0
20260506132414 66 0 0.0 0.0 0.00 0.00 0.00 56 1008.9
20260506132408 66 0 0.0 0.0 0.00 0.00 0.00 56 1008.9
20260506132334 66 0 0.0 0.0 0.00 0.00 0.00 56 1009.0
20260506132238 66 0 0.0 0.0 0.00 0.00 0.00 55 1009.0
20260506132134 66 0 0.0 0.0 0.00 0.00 0.00 54 1009.1
20260506131752 67 0 0.0 0.0 0.00 0.00 0.00 53 1009.1
20260506131746 67 0 0.0 0.0 0.00 0.00 0.00 53 1009.1
20260506131654 68 0 0.0 0.0 0.00 0.00 0.00 53 1009.1
20260506131610 68 0 0.0 0.0 0.00 0.00 0.00 53 1009.2
20260506131514 68 0 0.0 0.0 0.00 0.00 0.00 53 1009.2
20260506131442 68 0 0.0 0.0 0.00 0.00 0.00 52 1009.2
20260506131435 68 0 0.0 0.0 0.00 0.00 0.00 52 1009.2
20260506131418 68 0 0.0 0.0 0.00 0.00 0.00 53 1009.2
20260506131412 68 0 0.0 0.0 0.00 0.00 0.00 53 1009.2
20260506131346 68 0 0.0 0.0 0.00 0.00 0.00 53 1009.3
20260506131340 68 0 0.0 0.0 0.00 0.00 0.00 53 1009.3
20260506131314 68 0 0.0 0.0 0.00 0.00 0.00 53 1009.3
20260506131307 68 0 0.0 0.0 0.00 0.00 0.00 53 1009.3
20260506131242 67 0 0.0 0.0 0.00 0.00 0.00 54 1009.3
20260506131235 67 0 0.0 0.0 0.00 0.00 0.00 54 1009.3
20260506131208 67 0 0.0 0.0 0.00 0.00 0.00 53 1009.4
20260506131202 67 0 0.0 0.0 0.00 0.00 0.00 53 1009.4
20260506131129 67 0 0.0 0.0 0.00 0.00 0.00 53 1009.3
20260506131057 67 0 0.0 0.0 0.00 0.00 0.00 53 1009.3
20260506131025 67 0 0.0 0.0 0.00 0.00 0.00 53 1009.3
20260506131000 67 0 0.0 0.0 0.00 0.00 0.00 54 1009.3
20260506130953 67 0 0.0 0.0 0.00 0.00 0.00 54 1009.3
20260506130930 67 0 0.0 0.0 0.00 0.00 0.00 54 1009.4
20260506130923 67 0 0.0 0.0 0.00 0.00 0.00 54 1009.4
20260506130903 67 0 0.0 0.0 0.00 0.00 0.00 53 1009.4
20260506130858 67 0 0.0 0.0 0.00 0.00 0.00 53 1009.4
20260506130831 67 0 0.0 0.0 0.00 0.00 0.00 54 1009.4
20260506130825 67 0 0.0 0.0 0.00 0.00 0.00 54 1009.4
20260506130752 67 0 0.0 0.0 0.00 0.00 0.00 54 1009.4
20260506130728 67 0 0.0 0.0 0.00 0.00 0.00 54 1009.3
20260506130721 67 0 0.0 0.0 0.00 0.00 0.00 54 1009.3
20260506130659 67 0 0.0 0.0 0.00 0.00 0.00 54 1009.4
20260506130653 67 0 0.0 0.0 0.00 0.00 0.00 54 1009.4
20260506130625 67 0 0.0 0.0 0.00 0.00 0.00 54 1009.4
20260506130619 67 0 0.0 0.0 0.00 0.00 0.00 54 1009.4
20260506130556 67 0 0.0 0.0 0.00 0.00 0.00 55 1009.4
20260506130549 67 0 0.0 0.0 0.00 0.00 0.00 55 1009.4
20260506130519 66 0 0.0 0.0 0.00 0.00 0.00 54 1009.4
20260506130415 66 0 0.0 0.0 0.00 0.00 0.00 54 1009.4
20260506130347 66 0 0.0 0.0 0.00 0.00 0.00 55 1009.4
20260506130315 66 0 0.0 0.0 0.00 0.00 0.00 55 1009.4
20260506130241 66 0 0.0 0.0 0.00 0.00 0.00 54 1009.4
20260506130209 66 0 0.0 0.0 0.00 0.00 0.00 54 1009.4
20260506130137 66 0 0.0 0.0 0.00 0.00 0.00 54 1009.4
20260506130105 66 0 0.0 0.0 0.00 0.00 0.00 54 1009.4
20260506130041 66 0 0.0 0.0 0.00 0.00 0.00 53 1009.3
20260506130035 66 0 0.0 0.0 0.00 0.00 0.00 53 1009.3
20260506130019 66 0 0.0 0.0 0.00 0.00 0.00 54 1009.3
20260506130013 66 0 0.0 0.0 0.00 0.00 0.00 54 1009.3
20260506125959 66 0 0.0 0.0 0.00 0.00 0.00 54 1009.4
20260506125935 66 0 0.0 0.0 0.00 0.00 0.00 54 1009.4
20260506125929 66 0 0.0 0.0 0.00 0.00 0.00 54 1009.4
20260506125903 66 0 0.0 0.0 0.00 0.00 0.00 54 1009.4
20260506125857 66 0 0.0 0.0 0.00 0.00 0.00 54 1009.4
20260506125823 66 0 0.0 0.0 0.00 0.00 0.00 53 1009.4
20260506125817 66 0 0.0 0.0 0.00 0.00 0.00 53 1009.4
20260506125723 66 0 0.0 0.0 0.00 0.00 0.00 53 1009.4
20260506125607 66 0 0.0 0.0 0.00 0.00 0.00 52 1009.5
20260506125129 68 0 0.0 0.0 0.00 0.00 0.00 50 1009.5
20260506125123 68 0 0.0 0.0 0.00 0.00 0.00 50 1009.5
20260506125015 68 0 0.0 0.0 0.00 0.00 0.00 51 1009.5
20260506124925 68 0 0.0 0.0 0.00 0.00 0.00 50 1009.5
20260506124919 68 0 0.0 0.0 0.00 0.00 0.00 50 1009.5
20260506124839 68 0 0.0 0.0 0.00 0.00 0.00 49 1009.6
20260506124803 68 0 0.0 0.0 0.00 0.00 0.00 49 1009.6
20260506124733 68 0 0.0 0.0 0.00 0.00 0.00 49 1009.6
20260506124727 68 0 0.0 0.0 0.00 0.00 0.00 49 1009.6
20260506124713 68 0 0.0 0.0 0.00 0.00 0.00 49 1009.6
20260506124639 68 0 0.0 0.0 0.00 0.00 0.00 49 1009.6
20260506124615 68 0 0.0 0.0 0.00 0.00 0.00 50 1009.5
20260506124609 68 0 0.0 0.0 0.00 0.00 0.00 50 1009.5
20260506124545 69 0 0.0 0.0 0.00 0.00 0.00 49 1009.6
20260506124539 69 0 0.0 0.0 0.00 0.00 0.00 49 1009.6
20260506124517 68 0 0.0 0.0 0.00 0.00 0.00 49 1009.6
20260506124511 68 0 0.0 0.0 0.00 0.00 0.00 49 1009.6
20260506124445 69 0 0.0 0.0 0.00 0.00 0.00 49 1009.6
20260506124439 69 0 0.0 0.0 0.00 0.00 0.00 49 1009.6
20260506124409 69 0 0.0 0.0 0.00 0.00 0.00 49 1009.6
20260506124333 69 0 0.0 0.0 0.00 0.00 0.00 49 1009.6
20260506124303 69 0 0.0 0.0 0.00 0.00 0.00 49 1009.5
20260506124257 69 0 0.0 0.0 0.00 0.00 0.00 49 1009.5
20260506124229 68 0 0.0 0.0 0.00 0.00 0.00 49 1009.5
20260506124159 69 0 0.0 0.0 0.00 0.00 0.00 49 1009.5
20260506124153 69 0 0.0 0.0 0.00 0.00 0.00 49 1009.5
20260506124123 69 0 0.0 0.0 0.00 0.00 0.00 48 1009.5
20260506124051 69 0 0.0 0.0 0.00 0.00 0.00 49 1009.6
20260506124019 69 0 0.0 0.0 0.00 0.00 0.00 49 1009.6
20260506123949 69 0 0.0 0.0 0.00 0.00 0.00 48 1009.7
20260506123927 69 0 0.0 0.0 0.00 0.00 0.00 49 1009.6
20260506123920 69 0 0.0 0.0 0.00 0.00 0.00 49 1009.6
20260506123857 69 0 0.0 0.0 0.00 0.00 0.00 47 1009.7
20260506123850 69 0 0.0 0.0 0.00 0.00 0.00 47 1009.7
20260506123823 69 0 0.0 0.0 0.00 0.00 0.00 47 1009.7
20260506123816 69 0 0.0 0.0 0.00 0.00 0.00 47 1009.7
20260506123751 69 0 0.0 0.0 0.00 0.00 0.00 48 1009.7
20260506123745 69 0 0.0 0.0 0.00 0.00 0.00 48 1009.7
20260506123723 69 0 0.0 0.0 0.00 0.00 0.00 48 1009.6
20260506123716 69 0 0.0 0.0 0.00 0.00 0.00 48 1009.6
20260506123646 69 0 0.0 0.0 0.00 0.00 0.00 47 1009.7
20260506123621 70 0 0.0 0.0 0.00 0.00 0.00 46 1009.7
20260506123544 70 0 0.0 0.0 0.00 0.00 0.00 46 1009.7
20260506123516 70 0 0.0 0.0 0.00 0.00 0.00 46 1009.6
20260506123510 70 0 0.0 0.0 0.00 0.00 0.00 46 1009.6
20260506123438 71 0 0.0 0.0 0.00 0.00 0.00 45 1009.7
20260506123416 71 0 0.0 0.0 0.00 0.00 0.00 46 1009.7
20260506123410 71 0 0.0 0.0 0.00 0.00 0.00 46 1009.7
20260506123316 71 0 0.0 0.0 0.00 0.00 0.00 46 1009.7
20260506123310 71 0 0.0 0.0 0.00 0.00 0.00 46 1009.7
20260506123244 71 0 0.0 0.0 0.00 0.00 0.00 46 1009.6
20260506123238 71 0 0.0 0.0 0.00 0.00 0.00 46 1009.6
20260506123208 71 0 0.0 0.0 0.00 0.00 0.00 46 1009.7
20260506123140 71 0 0.0 0.0 0.00 0.00 0.00 45 1009.7
20260506123114 71 0 0.0 0.0 0.00 0.00 0.00 45 1009.8
20260506123108 71 0 0.0 0.0 0.00 0.00 0.00 45 1009.8
20260506123034 71 0 0.0 0.0 0.00 0.00 0.00 46 1009.7
20260506123004 71 0 0.0 0.0 0.00 0.00 0.00 46 1009.7
20260506122958 71 0 0.0 0.0 0.00 0.00 0.00 46 1009.7
20260506122922 71 0 0.0 0.0 0.00 0.00 0.00 46 1009.8
20260506122844 71 0 0.0 0.0 0.00 0.00 0.00 46 1009.7
20260506122818 71 0 0.0 0.0 0.00 0.00 0.00 45 1009.7
20260506122812 71 0 0.0 0.0 0.00 0.00 0.00 45 1009.7
20260506122738 70 0 0.0 0.0 0.00 0.00 0.00 45 1009.7
20260506122710 70 0 0.0 0.0 0.00 0.00 0.00 46 1009.7
20260506122704 70 0 0.0 0.0 0.00 0.00 0.00 46 1009.7
20260506122630 70 0 0.0 0.0 0.00 0.00 0.00 46 1009.7
20260506122600 70 0 0.0 0.0 0.00 0.00 0.00 46 1009.7
20260506122554 70 0 0.0 0.0 0.00 0.00 0.00 46 1009.7
20260506122452 70 0 0.0 0.0 0.00 0.00 0.00 46 1009.7
20260506122446 70 0 0.0 0.0 0.00 0.00 0.00 46 1009.7
20260506122414 70 0 0.0 0.0 0.00 0.00 0.00 46 1009.8
20260506122408 70 0 0.0 0.0 0.00 0.00 0.00 46 1009.8
20260506122334 70 0 0.0 0.0 0.00 0.00 0.00 45 1009.9
20260506122306 70 0 0.0 0.0 0.00 0.00 0.00 45 1009.8
20260506122258 70 0 0.0 0.0 0.00 0.00 0.00 45 1009.8
20260506122216 70 0 0.0 0.0 0.00 0.00 0.00 46 1009.8
20260506122210 70 0 0.0 0.0 0.00 0.00 0.00 46 1009.8
20260506122108 70 0 0.0 0.0 0.00 0.00 0.00 46 1009.8
20260506122102 70 0 0.0 0.0 0.00 0.00 0.00 46 1009.8
20260506122034 70 0 0.0 0.0 0.00 0.00 0.00 45 1009.8
20260506122028 70 0 0.0 0.0 0.00 0.00 0.00 45 1009.8
20260506121958 70 0 0.0 0.0 0.00 0.00 0.00 44 1009.8
20260506121924 70 0 0.0 0.0 0.00 0.00 0.00 44 1009.8
20260506121858 71 0 0.0 0.0 0.00 0.00 0.00 44 1009.7
20260506121852 71 0 0.0 0.0 0.00 0.00 0.00 44 1009.7
20260506121822 71 0 0.0 0.0 0.00 0.00 0.00 45 1009.8
20260506121754 71 0 0.0 0.0 0.00 0.00 0.00 45 1009.7
20260506121720 71 0 0.0 0.0 0.00 0.00 0.00 45 1009.8
20260506121642 70 0 0.0 0.0 0.00 0.00 0.00 45 1009.7
20260506121614 70 0 0.0 0.0 0.00 0.00 0.00 45 1009.8
20260506121540 70 0 0.0 0.0 0.00 0.00 0.00 46 1009.7
20260506121534 70 0 0.0 0.0 0.00 0.00 0.00 46 1009.7
20260506121456 70 0 0.0 0.0 0.00 0.00 0.00 45 1009.8
20260506121426 70 0 0.0 0.0 0.00 0.00 0.00 45 1009.7
20260506121404 71 0 0.0 0.0 0.00 0.00 0.00 45 1009.7
20260506121358 71 0 0.0 0.0 0.00 0.00 0.00 45 1009.7
20260506121318 71 0 0.0 0.0 0.00 0.00 0.00 45 1009.8
20260506121242 71 0 0.0 0.0 0.00 0.00 0.00 44 1009.8
20260506121210 71 0 0.0 0.0 0.00 0.00 0.00 44 1009.8
20260506121144 71 0 0.0 0.0 0.00 0.00 0.00 45 1009.8
20260506121139 71 0 0.0 0.0 0.00 0.00 0.00 45 1009.8
20260506121114 71 0 0.0 0.0 0.00 0.00 0.00 45 1009.8
20260506121108 71 0 0.0 0.0 0.00 0.00 0.00 45 1009.8
20260506121040 71 0 0.0 0.0 0.00 0.00 0.00 44 1009.8
20260506121010 71 0 0.0 0.0 0.00 0.00 0.00 44 1009.8
20260506121004 71 0 0.0 0.0 0.00 0.00 0.00 44 1009.8
20260506120934 71 0 0.0 0.0 0.00 0.00 0.00 43 1009.6
20260506120858 71 0 0.0 0.0 0.00 0.00 0.00 43 1009.8
20260506120832 71 0 0.0 0.0 0.00 0.00 0.00 43 1009.9
20260506120826 71 0 0.0 0.0 0.00 0.00 0.00 43 1009.9
20260506120748 71 0 0.0 0.0 0.00 0.00 0.00 43 1009.8
20260506120722 71 0 0.0 0.0 0.00 0.00 0.00 43 1009.8
20260506120715 71 0 0.0 0.0 0.00 0.00 0.00 43 1009.8
20260506120642 71 0 0.0 0.0 0.00 0.00 0.00 44 1009.8
20260506120616 71 0 0.0 0.0 0.00 0.00 0.00 44 1009.8
20260506120611 71 0 0.0 0.0 0.00 0.00 0.00 44 1009.8
20260506120546 71 0 0.0 0.0 0.00 0.00 0.00 44 1009.8
20260506120539 71 0 0.0 0.0 0.00 0.00 0.00 44 1009.8
20260506120514 71 0 0.0 0.0 0.00 0.00 0.00 44 1009.7
20260506120507 71 0 0.0 0.0 0.00 0.00 0.00 44 1009.7
20260506120431 72 0 0.0 0.0 0.00 0.00 0.00 43 1009.8
20260506120400 72 0 0.0 0.0 0.00 0.00 0.00 43 1009.7
20260506120353 72 0 0.0 0.0 0.00 0.00 0.00 43 1009.7
20260506120321 72 0 0.0 0.0 0.00 0.00 0.00 44 1009.8
20260506120253 72 0 0.0 0.0 0.00 0.00 0.00 43 1009.8
20260506120231 72 0 0.0 0.0 0.00 0.00 0.00 44 1009.7
20260506120225 72 0 0.0 0.0 0.00 0.00 0.00 44 1009.7
20260506120156 0 0 0.0 0.0 0.00 0.00 0.00
20260506120149 72 0 0.0 0.0 0.00 0.00 0.00 44 1009.8
20260506120116 72 0 0.0 0.0 0.00 0.00 0.00 44 1009.8
20260506120051 72 0 0.0 0.0 0.00 0.00 0.00 44 1009.8
20260506120045 72 0 0.0 0.0 0.00 0.00 0.00 44 1009.8
20260506120015 72 0 0.0 0.0 0.00 0.00 0.00 44 1009.8
20260506120009 72 0 0.0 0.0 0.00 0.00 0.00 44 1009.8
20260506115933 71 0 0.0 0.0 0.00 0.00 0.00 45 1009.8
20260506115855 71 0 0.0 0.0 0.00 0.00 0.00 45 1009.8
20260506115829 71 0 0.0 0.0 0.00 0.00 0.00 45 1009.8
20260506115823 71 0 0.0 0.0 0.00 0.00 0.00 45 1009.8
20260506115749 71 0 0.0 0.0 0.00 0.00 0.00 45 1009.8
20260506115711 71 0 0.0 0.0 0.00 0.00 0.00 45 1009.8
20260506115639 70 0 0.0 0.0 0.00 0.00 0.00 45 1009.8
20260506115559 70 0 0.0 0.0 0.00 0.00 0.00 44 1009.8
20260506115523 70 0 0.0 0.0 0.00 0.00 0.00 46 1009.8
20260506115449 70 0 0.0 0.0 0.00 0.00 0.00 47 1009.7
20260506115417 70 0 0.0 0.0 0.00 0.00 0.00 48 1009.8
20260506115348 70 0 0.0 0.0 0.00 0.00 0.00 48 1009.8
20260506115341 70 0 0.0 0.0 0.00 0.00 0.00 48 1009.8
20260506115309 69 0 0.0 0.0 0.00 0.00 0.00 48 1009.9
20260506115306 69 0 0.0 0.0 0.00 0.00 0.00 48 1009.9
20260506115237 69 0 0.0 0.0 0.00 0.00 0.00 48 1009.9
20260506115231 69 0 0.0 0.0 0.00 0.00 0.00 48 1009.9
20260506115201 69 0 0.0 0.0 0.00 0.00 0.00 48 1009.8
20260506115129 69 0 0.0 0.0 0.00 0.00 0.00 47 1009.9
20260506115101 68 0 0.0 0.0 0.00 0.00 0.00 47 1009.9
20260506115055 68 0 0.0 0.0 0.00 0.00 0.00 47 1009.9
20260506115019 68 0 0.0 0.0 0.00 0.00 0.00 47 1009.9
20260506114943 68 0 0.0 0.0 0.00 0.00 0.00 46 1009.9
20260506114905 68 0 0.0 0.0 0.00 0.00 0.00 47 1010.0
20260506114835 68 0 0.0 0.0 0.00 0.00 0.00 47 1009.9
20260506114808 68 0 0.0 0.0 0.00 0.00 0.00 48 1009.9
20260506114804 68 0 0.0 0.0 0.00 0.00 0.00 48 1009.9
20260506114731 68 0 0.0 0.0 0.00 0.00 0.00 48 1009.9
20260506114655 68 0 0.0 0.0 0.00 0.00 0.00 47 1009.8
20260506114628 68 0 0.0 0.0 0.00 0.00 0.00 48 1009.8
20260506114621 68 0 0.0 0.0 0.00 0.00 0.00 48 1009.8
20260506114555 68 0 0.0 0.0 0.00 0.00 0.00 48 1009.8
20260506114549 68 0 0.0 0.0 0.00 0.00 0.00 48 1009.8
20260506114517 68 0 0.0 0.0 0.00 0.00 0.00 48 1009.8
20260506114436 68 0 0.0 0.0 0.00 0.00 0.00 48 1009.9
20260506114403 68 0 0.0 0.0 0.00 0.00 0.00 48 1009.9
20260506114330 68 0 0.0 0.0 0.00 0.00 0.00 48 1009.9
20260506114259 68 0 0.0 0.0 0.00 0.00 0.00 48 1009.9
20260506114233 68 0 0.0 0.0 0.00 0.00 0.00 48 1009.9
20260506114227 68 0 0.0 0.0 0.00 0.00 0.00 48 1009.9
20260506114149 68 0 0.0 0.0 0.00 0.00 0.00 48 1009.9
20260506114107 68 0 0.0 0.0 0.00 0.00 0.00 48 1009.9
20260506114039 68 0 0.0 0.0 0.00 0.00 0.00 48 1009.9
20260506114034 68 0 0.0 0.0 0.00 0.00 0.00 48 1009.9
20260506114003 68 0 0.0 0.0 0.00 0.00 0.00 48 1009.9
20260506113929 68 0 0.0 0.0 0.00 0.00 0.00 48 1009.9
20260506113853 68 0 0.0 0.0 0.00 0.00 0.00 49 1009.9
20260506113825 68 0 0.0 0.0 0.00 0.00 0.00 49 1009.9
20260506113819 68 0 0.0 0.0 0.00 0.00 0.00 49 1009.9
20260506113747 68 0 0.0 0.0 0.00 0.00 0.00 49 1009.9
20260506113721 68 0 0.0 0.0 0.00 0.00 0.00 49 1010.0
20260506113715 68 0 0.0 0.0 0.00 0.00 0.00 49 1010.0
20260506113647 68 0 0.0 0.0 0.00 0.00 0.00 48 1010.0
20260506113641 68 0 0.0 0.0 0.00 0.00 0.00 48 1010.0
20260506113609 68 0 0.0 0.0 0.00 0.00 0.00 48 1010.0
20260506113537 68 0 0.0 0.0 0.00 0.00 0.00 48 1009.9
20260506113507 68 0 0.0 0.0 0.00 0.00 0.00 48 1009.9
20260506113501 68 0 0.0 0.0 0.00 0.00 0.00 48 1009.9
20260506113435 68 0 0.0 0.0 0.00 0.00 0.00 48 1010.0
20260506113429 68 0 0.0 0.0 0.00 0.00 0.00 48 1010.0
20260506113403 68 0 0.0 0.0 0.00 0.00 0.00 48 1010.0
20260506113357 68 0 0.0 0.0 0.00 0.00 0.00 48 1010.0
20260506113325 68 0 0.0 0.0 0.00 0.00 0.00 48 1009.9
20260506113251 68 0 0.0 0.0 0.00 0.00 0.00 48 1010.0
20260506113229 68 0 0.0 0.0 0.00 0.00 0.00 48 1009.9
20260506113223 68 0 0.0 0.0 0.00 0.00 0.00 48 1009.9
20260506113200 68 0 0.0 0.0 0.00 0.00 0.00 48 1010.0
20260506113134 68 0 0.0 0.0 0.00 0.00 0.00 48 1009.9
20260506113113 68 0 0.0 0.0 0.00 0.00 0.00 48 1009.9
20260506113040 68 0 0.0 0.0 0.00 0.00 0.00 48 1009.9
20260506113015 68 0 0.0 0.0 0.00 0.00 0.00 48 1009.9
20260506113008 68 0 0.0 0.0 0.00 0.00 0.00 48 1009.9
20260506112941 68 0 0.0 0.0 0.00 0.00 0.00 48 1009.9
20260506112934 68 0 0.0 0.0 0.00 0.00 0.00 48 1009.9
20260506112910 68 0 0.0 0.0 0.00 0.00 0.00 48 1009.8
20260506112904 68 0 0.0 0.0 0.00 0.00 0.00 48 1009.8
20260506112834 68 0 0.0 0.0 0.00 0.00 0.00 49 1009.8
20260506112815 68 0 0.0 0.0 0.00 0.00 0.00 49 1009.9
20260506112808 68 0 0.0 0.0 0.00 0.00 0.00 49 1009.9
20260506112750 68 0 0.0 0.0 0.00 0.00 0.00 48 1009.9
20260506112744 68 0 0.0 0.0 0.00 0.00 0.00 48 1009.9
20260506112652 68 0 0.0 0.0 0.00 0.00 0.00 49 1009.9
20260506112646 68 0 0.0 0.0 0.00 0.00 0.00 49 1009.9
20260506112554 68 0 0.0 0.0 0.00 0.00 0.00 49 1009.9
20260506112548 68 0 0.0 0.0 0.00 0.00 0.00 49 1009.9
20260506112520 68 0 0.0 0.0 0.00 0.00 0.00 48 1009.9
20260506112454 68 0 0.0 0.0 0.00 0.00 0.00 48 1009.9
20260506112448 68 0 0.0 0.0 0.00 0.00 0.00 48 1009.9
20260506112426 68 0 0.0 0.0 0.00 0.00 0.00 48 1009.9
20260506112358 68 0 0.0 0.0 0.00 0.00 0.00 48 1009.9
20260506112352 68 0 0.0 0.0 0.00 0.00 0.00 48 1009.9
20260506112322 69 0 0.0 0.0 0.00 0.00 0.00 48 1009.9
20260506112238 69 0 0.0 0.0 0.00 0.00 0.00 48 1009.9
20260506112232 69 0 0.0 0.0 0.00 0.00 0.00 48 1009.9
20260506112210 69 0 0.0 0.0 0.00 0.00 0.00 48 1009.8
20260506112148 69 0 0.0 0.0 0.00 0.00 0.00 48 1009.9
20260506112142 69 0 0.0 0.0 0.00 0.00 0.00 48 1009.9
20260506112122 69 0 0.0 0.0 0.00 0.00 0.00 48 1010.0
20260506112116 69 0 0.0 0.0 0.00 0.00 0.00 48 1010.0
20260506112044 70 0 0.0 0.0 0.00 0.00 0.00 47 1010.0
20260506112022 70 0 0.0 0.0 0.00 0.00 0.00 47 1010.0
20260506111948 70 0 0.0 0.0 0.00 0.00 0.00 47 1010.0
20260506111918 70 0 0.0 0.0 0.00 0.00 0.00 47 1010.0
20260506111912 70 0 0.0 0.0 0.00 0.00 0.00 47 1010.0
20260506111826 70 0 0.0 0.0 0.00 0.00 0.00 46 1010.0
20260506111724 70 0 0.0 0.0 0.00 0.00 0.00 46 1010.0
20260506111700 70 0 0.0 0.0 0.00 0.00 0.00 48 1010.0
20260506111654 70 0 0.0 0.0 0.00 0.00 0.00 48 1010.0
20260506111628 70 0 0.0 0.0 0.00 0.00 0.00 48 1009.9
20260506111622 70 0 0.0 0.0 0.00 0.00 0.00 48 1009.9
20260506111558 70 0 0.0 0.0 0.00 0.00 0.00 48 1010.0
20260506111552 70 0 0.0 0.0 0.00 0.00 0.00 48 1010.0
20260506111520 70 0 0.0 0.0 0.00 0.00 0.00 47 1010.0
20260506111456 70 0 0.0 0.0 0.00 0.00 0.00 48 1010.0
20260506111450 70 0 0.0 0.0 0.00 0.00 0.00 48 1010.0
20260506111418 71 0 0.0 0.0 0.00 0.00 0.00 47 1010.0
20260506111346 71 0 0.0 0.0 0.00 0.00 0.00 46 1010.0
20260506111312 71 0 0.0 0.0 0.00 0.00 0.00 47 1010.0
20260506111240 71 0 0.0 0.0 0.00 0.00 0.00 46 1010.0
20260506111214 71 0 0.0 0.0 0.00 0.00 0.00 46 1010.1
20260506111142 71 0 0.0 0.0 0.00 0.00 0.00 46 1010.1
20260506111116 71 0 0.0 0.0 0.00 0.00 0.00 46 1010.1
20260506111110 71 0 0.0 0.0 0.00 0.00 0.00 46 1010.1
20260506111042 71 0 0.0 0.0 0.00 0.00 0.00 46 1010.1
20260506111036 71 0 0.0 0.0 0.00 0.00 0.00 46 1010.1
20260506111006 72 0 0.0 0.0 0.00 0.00 0.00 46 1010.1
20260506110934 72 0 0.0 0.0 0.00 0.00 0.00 46 1010.1
20260506110928 72 0 0.0 0.0 0.00 0.00 0.00 46 1010.1
20260506110854 72 0 0.0 0.0 0.00 0.00 0.00 46 1010.1
20260506110848 72 0 0.0 0.0 0.00 0.00 0.00 46 1010.1
20260506110824 72 0 0.0 0.0 0.00 0.00 0.00 46 1010.2
20260506110818 72 0 0.0 0.0 0.00 0.00 0.00 46 1010.2
20260506110748 72 0 0.0 0.0 0.00 0.00 0.00 45 1010.2
20260506110718 72 0 0.0 0.0 0.00 0.00 0.00 45 1010.2
20260506110712 72 0 0.0 0.0 0.00 0.00 0.00 45 1010.2
20260506110642 72 0 0.0 0.0 0.00 0.00 0.00 46 1010.2
20260506110612 72 0 0.0 0.0 0.00 0.00 0.00 46 1010.2
20260506110606 72 0 0.0 0.0 0.00 0.00 0.00 46 1010.2
20260506110540 72 0 0.0 0.0 0.00 0.00 0.00 45 1010.2
20260506110534 72 0 0.0 0.0 0.00 0.00 0.00 45 1010.2
20260506110508 72 0 0.0 0.0 0.00 0.00 0.00 45 1010.2
20260506110502 72 0 0.0 0.0 0.00 0.00 0.00 45 1010.2
20260506110426 72 0 0.0 0.0 0.00 0.00 0.00 45 1010.2
20260506110400 72 0 0.0 0.0 0.00 0.00 0.00 44 1010.3
20260506110354 72 0 0.0 0.0 0.00 0.00 0.00 44 1010.3
20260506110322 72 0 0.0 0.0 0.00 0.00 0.00 45 1010.2
20260506110246 72 0 0.0 0.0 0.00 0.00 0.00 44 1010.2
20260506110210 72 0 0.0 0.0 0.00 0.00 0.00 45 1010.2
20260506110142 72 0 0.0 0.0 0.00 0.00 0.00 44 1010.2
20260506110110 72 0 0.0 0.0 0.00 0.00 0.00 44 1010.2
20260506110046 72 0 0.0 0.0 0.00 0.00 0.00 44 1010.1
20260506110040 72 0 0.0 0.0 0.00 0.00 0.00 44 1010.1
20260506110014 73 0 0.0 0.0 0.00 0.00 0.00 44 1010.1
20260506105946 73 0 0.0 0.0 0.00 0.00 0.00 44 1010.1
20260506105939 73 0 0.0 0.0 0.00 0.00 0.00 44 1010.1
20260506105914 72 0 0.0 0.0 0.00 0.00 0.00 44 1010.2
20260506105907 72 0 0.0 0.0 0.00 0.00 0.00 44 1010.2
20260506105844 72 0 0.0 0.0 0.00 0.00 0.00 43 1010.1
20260506105838 72 0 0.0 0.0 0.00 0.00 0.00 43 1010.1
20260506105810 72 0 0.0 0.0 0.00 0.00 0.00 43 1010.1
20260506105804 72 0 0.0 0.0 0.00 0.00 0.00 43 1010.1
20260506105732 72 0 0.0 0.0 0.00 0.00 0.00 43 1010.2
20260506105725 72 0 0.0 0.0 0.00 0.00 0.00 43 1010.2
20260506105651 73 0 0.0 0.0 0.00 0.00 0.00 42 1010.2
20260506105630 73 0 0.0 0.0 0.00 0.00 0.00 43 1010.1
20260506105623 73 0 0.0 0.0 0.00 0.00 0.00 43 1010.1
20260506105521 73 0 0.0 0.0 0.00 0.00 0.00 43 1010.2
20260506105515 73 0 0.0 0.0 0.00 0.00 0.00 43 1010.2
20260506105448 73 0 0.0 0.0 0.00 0.00 0.00 43 1010.3
20260506105441 73 0 0.0 0.0 0.00 0.00 0.00 43 1010.3
20260506105412 74 0 0.0 0.0 0.00 0.00 0.00 43 101.0
20260506105405 74 0 0.0 0.0 0.00 0.00 0.00 43 1010.1
20260506105338 74 0 0.0 0.0 0.00 0.00 0.00 45 1010.3
20260506105331 74 0 0.0 0.0 0.00 0.00 0.00 45 1010.3
20260506105309 74 0 0.0 0.0 0.00 0.00 0.00 44 1010.2
20260506105305 74 0 0.0 0.0 0.00 0.00 0.00 44 1010.2
20260506105229 74 0 0.0 0.0 0.00 0.00 0.00 44 1010.2
20260506105203 74 0 0.0 0.0 0.00 0.00 0.00 45 1010.2
20260506105157 74 0 0.0 0.0 0.00 0.00 0.00 45 1010.2
20260506105125 74 0 0.0 0.0 0.00 0.00 0.00 44 1010.1
20260506105053 74 0 0.0 0.0 0.00 0.00 0.00 43 1010.2
20260506105047 74 0 0.0 0.0 0.00 0.00 0.00 43 1010.2
20260506105017 74 0 0.0 0.0 0.00 0.00 0.00 42 1010.2
20260506105011 74 0 0.0 0.0 0.00 0.00 0.00 42 1010.2
20260506104948 74 0 0.0 0.0 0.00 0.00 0.00 43 1010.3
20260506104941 74 0 0.0 0.0 0.00 0.00 0.00 43 1010.3
20260506104915 74 0 0.0 0.0 0.00 0.00 0.00 44 1010.2
20260506104909 74 0 0.0 0.0 0.00 0.00 0.00 44 1010.2
20260506104835 74 0 0.0 0.0 0.00 0.00 0.00 42 1010.2
20260506104759 74 0 0.0 0.0 0.00 0.00 0.00 43 1010.2
20260506104725 74 0 0.0 0.0 0.00 0.00 0.00 44 1010.2
20260506104645 73 0 0.0 0.0 0.00 0.00 0.00 44 1010.2
20260506104613 73 0 0.0 0.0 0.00 0.00 0.00 45 1010.3
20260506104545 73 0 0.0 0.0 0.00 0.00 0.00 44 1010.2
20260506104539 73 0 0.0 0.0 0.00 0.00 0.00 44 1010.2
20260506104507 73 0 0.0 0.0 0.00 0.00 0.00 43 1010.3
20260506104441 73 0 0.0 0.0 0.00 0.00 0.00 44 1010.2
20260506104435 73 0 0.0 0.0 0.00 0.00 0.00 44 1010.2
20260506104405 73 0 0.0 0.0 0.00 0.00 0.00 44 1010.3
20260506104359 73 0 0.0 0.0 0.00 0.00 0.00 44 1010.3
20260506104329 73 0 0.0 0.0 0.00 0.00 0.00 43 1010.3
20260506104255 73 0 0.0 0.0 0.00 0.00 0.00 43 1010.3
20260506104228 73 0 0.0 0.0 0.00 0.00 0.00 44 1010.4
20260506104221 73 0 0.0 0.0 0.00 0.00 0.00 44 1010.4
20260506104147 73 0 0.0 0.0 0.00 0.00 0.00 44 1010.3
20260506104117 73 0 0.0 0.0 0.00 0.00 0.00 45 1010.3
20260506104111 73 0 0.0 0.0 0.00 0.00 0.00 45 1010.3
20260506104045 74 0 0.0 0.0 0.00 0.00 0.00 44 1010.3
20260506104039 74 0 0.0 0.0 0.00 0.00 0.00 44 1010.3
20260506104011 74 0 0.0 0.0 0.00 0.00 0.00 44 1010.3
20260506104005 74 0 0.0 0.0 0.00 0.00 0.00 44 1010.3
20260506103933 74 0 0.0 0.0 0.00 0.00 0.00 44 1010.3
20260506103859 74 0 0.0 0.0 0.00 0.00 0.00 44 1010.3
20260506103829 74 0 0.0 0.0 0.00 0.00 0.00 45 1010.3
20260506103823 74 0 0.0 0.0 0.00 0.00 0.00 45 1010.3
20260506103755 74 0 0.0 0.0 0.00 0.00 0.00 45 1010.4
20260506103749 74 0 0.0 0.0 0.00 0.00 0.00 45 1010.4
20260506103723 74 0 0.0 0.0 0.00 0.00 0.00 45 1010.4
20260506103717 74 0 0.0 0.0 0.00 0.00 0.00 45 1010.4
20260506103643 73 0 0.0 0.0 0.00 0.00 0.00 45 1010.4
20260506103607 73 0 0.0 0.0 0.00 0.00 0.00 48 1010.4
20260506103535 73 0 0.0 0.0 0.00 0.00 0.00 47 1010.4
20260506103505 72 0 0.0 0.0 0.00 0.00 0.00 49 1010.4
20260506103459 72 0 0.0 0.0 0.00 0.00 0.00 49 1010.4
20260506103429 72 0 0.0 0.0 0.00 0.00 0.00 48 1010.4
20260506103423 72 0 0.0 0.0 0.00 0.00 0.00 48 1010.4
20260506103345 72 0 0.0 0.0 0.00 0.00 0.00 46 1010.4
20260506103313 72 0 0.0 0.0 0.00 0.00 0.00 47 1010.3
20260506103245 73 0 0.0 0.0 0.00 0.00 0.00 47 1010.4
20260506103239 73 0 0.0 0.0 0.00 0.00 0.00 47 1010.4
20260506103203 73 0 0.0 0.0 0.00 0.00 0.00 46 1010.4
20260506103133 73 0 0.0 0.0 0.00 0.00 0.00 47 1010.4
20260506103103 73 0 0.0 0.0 0.00 0.00 0.00 47 1010.4
20260506103057 73 0 0.0 0.0 0.00 0.00 0.00 47 1010.4
20260506103021 72 0 0.0 0.0 0.00 0.00 0.00 47 1010.5
20260506102951 72 0 0.0 0.0 0.00 0.00 0.00 48 1010.5
20260506102919 72 0 0.0 0.0 0.00 0.00 0.00 49 1010.5
20260506102913 72 0 0.0 0.0 0.00 0.00 0.00 49 1010.5
20260506102837 71 0 0.0 0.0 0.00 0.00 0.00 48 1010.5
20260506102801 71 0 0.0 0.0 0.00 0.00 0.00 47 1010.4
20260506102733 71 0 0.0 0.0 0.00 0.00 0.00 47 1010.4
20260506102727 71 0 0.0 0.0 0.00 0.00 0.00 47 1010.4
20260506102651 71 0 0.0 0.0 0.00 0.00 0.00 48 1010.5
20260506102621 71 0 0.0 0.0 0.00 0.00 0.00 49 1010.5
20260506102615 71 0 0.0 0.0 0.00 0.00 0.00 49 1010.5
20260506102538 71 0 0.0 0.0 0.00 0.00 0.00 49 1010.5
20260506102515 71 0 0.0 0.0 0.00 0.00 0.00 50 1010.6
20260506102509 71 0 0.0 0.0 0.00 0.00 0.00 50 1010.6
20260506102431 71 0 0.0 0.0 0.00 0.00 0.00 50 1010.6
20260506102402 70 0 0.0 0.0 0.00 0.00 0.00 50 1010.5
20260506102337 70 0 0.0 0.0 0.00 0.00 0.00 48 1010.5
20260506102330 70 0 0.0 0.0 0.00 0.00 0.00 48 1010.5
20260506102301 70 0 0.0 0.0 0.00 0.00 0.00 48 101.0
20260506102254 70 0 0.0 0.0 0.00 0.00 0.00 48 1010.6
20260506102210 70 0 0.0 0.0 0.00 0.00 0.00 48 1010.6
20260506102138 70 0 0.0 0.0 0.00 0.00 0.00 48 1010.6
20260506102112 70 0 0.0 0.0 0.00 0.00 0.00 46 1010.6
20260506102106 70 0 0.0 0.0 0.00 0.00 0.00 46 1010.6
20260506102039 71 0 0.0 0.0 0.00 0.00 0.00 47 1010.6
20260506102034 71 0 0.0 0.0 0.00 0.00 0.00 47 1010.6
20260506102002 71 0 0.0 0.0 0.00 0.00 0.00 46 1010.6
20260506101936 71 0 0.0 0.0 0.00 0.00 0.00 46 1010.6
20260506101930 71 0 0.0 0.0 0.00 0.00 0.00 46 1010.6
20260506101908 72 0 0.0 0.0 0.00 0.00 0.00 46 1010.5
20260506101902 72 0 0.0 0.0 0.00 0.00 0.00 46 1010.5
20260506101836 72 0 0.0 0.0 0.00 0.00 0.00 46 1010.5
20260506101830 72 0 0.0 0.0 0.00 0.00 0.00 46 1010.5
20260506101752 72 0 0.0 0.0 0.00 0.00 0.00 47 1010.6
20260506101720 71 0 0.0 0.0 0.00 0.00 0.00 49 1010.6
20260506101714 71 0 0.0 0.0 0.00 0.00 0.00 49 1010.6
20260506101648 71 0 0.0 0.0 0.00 0.00 0.00 49 1010.6
20260506101642 71 0 0.0 0.0 0.00 0.00 0.00 49 1010.6
20260506101606 71 0 0.0 0.0 0.00 0.00 0.00 49 1010.5
20260506101537 71 0 0.0 0.0 0.00 0.00 0.00 49 1010.5
20260506101530 71 0 0.0 0.0 0.00 0.00 0.00 49 1010.5
20260506101458 71 0 0.0 0.0 0.00 0.00 0.00 49 1010.5
20260506101434 71 0 0.0 0.0 0.00 0.00 0.00 50 1010.5
20260506101428 71 0 0.0 0.0 0.00 0.00 0.00 50 1010.5
20260506101402 71 0 0.0 0.0 0.00 0.00 0.00 49 1010.5
20260506101326 71 0 0.0 0.0 0.00 0.00 0.00 49 1010.5
20260506101300 71 0 0.0 0.0 0.00 0.00 0.00 48 1010.5
20260506101254 71 0 0.0 0.0 0.00 0.00 0.00 48 1010.5
20260506101226 71 0 0.0 0.0 0.00 0.00 0.00 48 1010.5
20260506101220 71 0 0.0 0.0 0.00 0.00 0.00 48 1010.5
20260506101152 70 0 0.0 0.0 0.00 0.00 0.00 50 1010.5
20260506101146 70 0 0.0 0.0 0.00 0.00 0.00 50 1010.5
20260506101114 70 0 0.0 0.0 0.00 0.00 0.00 51 1010.5
20260506101040 70 0 0.0 0.0 0.00 0.00 0.00 50 1010.5
20260506101034 70 0 0.0 0.0 0.00 0.00 0.00 50 1010.5
20260506101004 69 0 0.0 0.0 0.00 0.00 0.00 51 1010.5
20260506100958 69 0 0.0 0.0 0.00 0.00 0.00 51 1010.5
20260506100924 69 0 0.0 0.0 0.00 0.00 0.00 51 1010.5
20260506100918 69 0 0.0 0.0 0.00 0.00 0.00 51 1010.5
20260506100848 69 0 0.0 0.0 0.00 0.00 0.00 50 1010.5
20260506100842 69 0 0.0 0.0 0.00 0.00 0.00 50 1010.5
20260506100818 69 0 0.0 0.0 0.00 0.00 0.00 50 1010.6
20260506100812 69 0 0.0 0.0 0.00 0.00 0.00 50 1010.6
20260506100741 69 0 0.0 0.0 0.00 0.00 0.00 51 1010.6
20260506100702 70 0 0.0 0.0 0.00 0.00 0.00 50 1010.5
20260506100630 70 0 0.0 0.0 0.00 0.00 0.00 50 1010.4
20260506100603 70 0 0.0 0.0 0.00 0.00 0.00 49 1010.5
20260506100556 70 0 0.0 0.0 0.00 0.00 0.00 49 1010.5
20260506100532 70 0 0.0 0.0 0.00 0.00 0.00 50 1010.5
20260506100526 70 0 0.0 0.0 0.00 0.00 0.00 50 1010.5
20260506100456 70 0 0.0 0.0 0.00 0.00 0.00 50 1010.6
20260506100433 70 0 0.0 0.0 0.00 0.00 0.00 49 1010.6
20260506100426 70 0 0.0 0.0 0.00 0.00 0.00 49 1010.6
20260506100420 70 0 0.0 0.0 0.00 0.00 0.00 49 1010.6
20260506100358 70 0 0.0 0.0 0.00 0.00 0.00 51 1010.6
20260506100352 70 0 0.0 0.0 0.00 0.00 0.00 51 1010.6
20260506100322 70 0 0.0 0.0 0.00 0.00 0.00 50 1010.6
20260506100254 70 0 0.0 0.0 0.00 0.00 0.00 50 1010.6
20260506100248 70 0 0.0 0.0 0.00 0.00 0.00 50 1010.6
20260506100212 70 0 0.0 0.0 0.00 0.00 0.00 49 1010.7
20260506100142 71 0 0.0 0.0 0.00 0.00 0.00 49 1010.7
20260506100136 71 0 0.0 0.0 0.00 0.00 0.00 49 1010.7
20260506100044 71 0 0.0 0.0 0.00 0.00 0.00 49 1010.7
20260506100038 71 0 0.0 0.0 0.00 0.00 0.00 49 1010.7
20260506100006 71 0 0.0 0.0 0.00 0.00 0.00 49 1010.7
20260506100000 71 0 0.0 0.0 0.00 0.00 0.00 49 1010.7
20260506095928 71 0 0.0 0.0 0.00 0.00 0.00 49 1010.8
20260506095858 71 0 0.0 0.0 0.00 0.00 0.00 49 1010.7
20260506095852 71 0 0.0 0.0 0.00 0.00 0.00 49 1010.7
20260506095821 71 0 0.0 0.0 0.00 0.00 0.00 49
20260506095814 71 0 0.0 0.0 0.00 0.00 0.00 49 1010.7
20260506095742 71 0 0.0 0.0 0.00 0.00 0.00 53 1010.7
20260506095714 70 0 0.0 0.0 0.00 0.00 0.00 53 1010.6
20260506095708 70 0 0.0 0.0 0.00 0.00 0.00 53 1010.6
20260506095642 70 0 0.0 0.0 0.00 0.00 0.00 53 1010.6
20260506095636 70 0 0.0 0.0 0.00 0.00 0.00 53 1010.6
20260506095602 70 0 0.0 0.0 0.00 0.00 0.00 52 1010.7
20260506095524 70 0 0.0 0.0 0.00 0.00 0.00 51 1010.6
20260506095452 69 0 0.0 0.0 0.00 0.00 0.00 51 1010.7
20260506095446 69 0 0.0 0.0 0.00 0.00 0.00 51 1010.7
20260506095422 69 0 0.0 0.0 0.00 0.00 0.00 50 1010.7
20260506095416 69 0 0.0 0.0 0.00 0.00 0.00 50 1010.7
20260506095346 69 0 0.0 0.0 0.00 0.00 0.00 50 1010.8
20260506095340 69 0 0.0 0.0 0.00 0.00 0.00 50 1010.8
20260506095312 69 0 0.0 0.0 0.00 0.00 0.00 51 1010.7
20260506095306 69 0 0.0 0.0 0.00 0.00 0.00 51 1010.7
20260506095240 69 0 0.0 0.0 0.00 0.00 0.00 52 1010.8
20260506095234 69 0 0.0 0.0 0.00 0.00 0.00 52 1010.8
20260506095158 69 0 0.0 0.0 0.00 0.00 0.00 51 1010.7
20260506095122 69 0 0.0 0.0 0.00 0.00 0.00 50 1010.7
20260506095042 69 0 0.0 0.0 0.00 0.00 0.00 51 1010.8
20260506095018 70 0 0.0 0.0 0.00 0.00 0.00 51 1010.7
20260506095011 70 0 0.0 0.0 0.00 0.00 0.00 51 1010.7
20260506094936 0 0 0.0 0.0 0.00 0.00 0.00
20260506094929 70 0 0.0 0.0 0.00 0.00 0.00 50 1010.6
20260506094901 70 0 0.0 0.0 0.00 0.00 0.00 50 1010.7
20260506094842 71 0 0.0 0.0 0.00 0.00 0.00 50 1010.7
20260506094835 71 0 0.0 0.0 0.00 0.00 0.00 50 1010.7
20260506094802 71 0 0.0 0.0 0.00 0.00 0.00 50 1010.7
20260506094742 71 0 0.0 0.0 0.00 0.00 0.00 51 1010.8
20260506094735 71 0 0.0 0.0 0.00 0.00 0.00 51 1010.8
20260506094701 71 0 0.0 0.0 0.00 0.00 0.00 51 1010.8
20260506094636 71 0 0.0 0.0 0.00 0.00 0.00 50
20260506094629 71 0 0.0 0.0 0.00 0.00 0.00 50 1010.8
20260506094556 71 0 0.0 0.0 0.00 0.00 0.00 50 1010.7
20260506094521 71 0 0.0 0.0 0.00 0.00 0.00 50 1010.7
20260506094451 71 0 0.0 0.0 0.00 0.00 0.00 49 1010.7
20260506094445 71 0 0.0 0.0 0.00 0.00 0.00 49 1010.7
20260506094411 71 0 0.0 0.0 0.00 0.00 0.00 51 1010.8
20260506094258 71 0 0.0 0.0 0.00 0.00 0.00 51 1010.7
20260506094211 71 0 0.0 0.0 0.00 0.00 0.00 50 1010.7
20260506094205 71 0 0.0 0.0 0.00 0.00 0.00 50 1010.7
20260506094129 71 0 0.0 0.0 0.00 0.00 0.00 50 1010.7
20260506094055 71 0 0.0 0.0 0.00 0.00 0.00 50 1010.8
20260506094021 71 0 0.0 0.0 0.00 0.00 0.00 50 1010.7
20260506093949 71 0 0.0 0.0 0.00 0.00 0.00 51 1010.7
20260506093943 71 0 0.0 0.0 0.00 0.00 0.00 51 1010.7
20260506093911 70 0 0.0 0.0 0.00 0.00 0.00 51 1010.7
20260506093841 70 0 0.0 0.0 0.00 0.00 0.00 52 1010.6
20260506093835 70 0 0.0 0.0 0.00 0.00 0.00 52 1010.6
20260506093805 70 0 0.0 0.0 0.00 0.00 0.00 51 1010.6
20260506093759 70 0 0.0 0.0 0.00 0.00 0.00 51 1010.6
20260506093727 70 0 0.0 0.0 0.00 0.00 0.00 52 1010.7
20260506093659 70 0 0.0 0.0 0.00 0.00 0.00 53 1010.7
20260506093653 70 0 0.0 0.0 0.00 0.00 0.00 53 1010.7
20260506093625 70 0 0.0 0.0 0.00 0.00 0.00 52 1010.6
20260506093619 70 0 0.0 0.0 0.00 0.00 0.00 52 1010.6
20260506093545 70 0 0.0 0.0 0.00 0.00 0.00 54 1010.7
20260506093539 70 0 0.0 0.0 0.00 0.00 0.00 54 1010.7
20260506093513 70 0 0.0 0.0 0.00 0.00 0.00 53 1010.7
20260506093507 70 0 0.0 0.0 0.00 0.00 0.00 53 1010.7
20260506093441 70 0 0.0 0.0 0.00 0.00 0.00 53 1010.7
20260506093435 70 0 0.0 0.0 0.00 0.00 0.00 53 1010.7
20260506093401 69 0 0.0 0.0 0.00 0.00 0.00 53 1010.7
20260506093323 69 0 0.0 0.0 0.00 0.00 0.00 55 1010.8
20260506093253 69 0 0.0 0.0 0.00 0.00 0.00 54 1010.8
20260506093247 69 0 0.0 0.0 0.00 0.00 0.00 54 1010.8
20260506093215 68 0 0.0 0.0 0.00 0.00 0.00 55 1010.8
20260506093209 68 0 0.0 0.0 0.00 0.00 0.00 55 1010.8
20260506093123 68 0 0.0 0.0 0.00 0.00 0.00 56 1010.7
20260506093117 68 0 0.0 0.0 0.00 0.00 0.00 56 1010.7
20260506093045 68 0 0.0 0.0 0.00 0.00 0.00 57 1010.8
20260506093023 68 0 0.0 0.0 0.00 0.00 0.00 56 1010.7
20260506093017 68 0 0.0 0.0 0.00 0.00 0.00 56 1010.7
20260506092945 68 0 0.0 0.0 0.00 0.00 0.00 56 1010.7
20260506092939 68 0 0.0 0.0 0.00 0.00 0.00 56 1010.7
20260506092901 68 0 0.0 0.0 0.00 0.00 0.00 55 1010.7
20260506092835 68 0 0.0 0.0 0.00 0.00 0.00 56 1010.8
20260506092829 68 0 0.0 0.0 0.00 0.00 0.00 56 1010.8
20260506092749 68 0 0.0 0.0 0.00 0.00 0.00 56 1010.8
20260506092721 69 0 0.0 0.0 0.00 0.00 0.00 55 1010.7
20260506092715 69 0 0.0 0.0 0.00 0.00 0.00 55 1010.7
20260506092639 69 0 0.0 0.0 0.00 0.00 0.00 55 1010.8
20260506092619 69 0 0.0 0.0 0.00 0.00 0.00 55 1010.7
20260506092613 69 0 0.0 0.0 0.00 0.00 0.00 55 1010.7
20260506092548 70 0 0.0 0.0 0.00 0.00 0.00 55 1010.7
20260506092523 70 0 0.0 0.0 0.00 0.00 0.00 55 1010.7
20260506092517 70 0 0.0 0.0 0.00 0.00 0.00 55 1010.7
20260506092447 70 0 0.0 0.0 0.00 0.00 0.00 57 1010.7
20260506092441 70 0 0.0 0.0 0.00 0.00 0.00 57 1010.7
20260506092412 69 0 0.0 0.0 0.00 0.00 0.00 58 1010.7
20260506092405 69 0 0.0 0.0 0.00 0.00 0.00 58 1010.7
20260506092339 69 0 0.0 0.0 0.00 0.00 0.00 58 1010.7
20260506092333 69 0 0.0 0.0 0.00 0.00 0.00 58 1010.7
20260506092301 68 0 0.0 0.0 0.00 0.00 0.00 58 1010.7
20260506092255 68 0 0.0 0.0 0.00 0.00 0.00 58 1010.7
20260506092225 68 0 0.0 0.0 0.00 0.00 0.00 58 1010.7
20260506092219 68 0 0.0 0.0 0.00 0.00 0.00 58 1010.7
20260506092145 68 0 0.0 0.0 0.00 0.00 0.00 56 1010.7
20260506092139 68 0 0.0 0.0 0.00 0.00 0.00 56 1010.7
20260506092057 68 0 0.0 0.0 0.00 0.00 0.00 55 1010.7
20260506092025 68 0 0.0 0.0 0.00 0.00 0.00 56 1010.7
20260506091939 69 0 0.0 0.0 0.00 0.00 0.00 56 1010.7
20260506091933 69 0 0.0 0.0 0.00 0.00 0.00 56 1010.7
20260506091905 69 0 0.0 0.0 0.00 0.00 0.00 55 1010.7
20260506091845 69 0 0.0 0.0 0.00 0.00 0.00 54 1010.7
20260506091839 69 0 0.0 0.0 0.00 0.00 0.00 54 1010.7
20260506091803 69 0 0.0 0.0 0.00 0.00 0.00 56 1010.7
20260506091737 69 0 0.0 0.0 0.00 0.00 0.00 55 1010.7
20260506091731 69 0 0.0 0.0 0.00 0.00 0.00 55 1010.7
20260506091659 68 0 0.0 0.0 0.00 0.00 0.00 55 1010.8
20260506091652 68 0 0.0 0.0 0.00 0.00 0.00 55 1010.8
20260506091611 69 0 0.0 0.0 0.00 0.00 0.00 54 1010.7
20260506091547 69 0 0.0 0.0 0.00 0.00 0.00 55 1010.7
20260506091540 69 0 0.0 0.0 0.00 0.00 0.00 55 1010.7
20260506091517 69 0 0.0 0.0 0.00 0.00 0.00 56 1010.8
20260506091510 69 0 0.0 0.0 0.00 0.00 0.00 56 1010.8
20260506091439 69 0 0.0 0.0 0.00 0.00 0.00 55 1010.7
20260506091413 69 0 0.0 0.0 0.00 0.00 0.00 56 1010.7
20260506091406 69 0 0.0 0.0 0.00 0.00 0.00 56 1010.7
20260506091336 69 0 0.0 0.0 0.00 0.00 0.00 54 1010.6
20260506091312 69 0 0.0 0.0 0.00 0.00 0.00 53 1010.7
20260506091236 69 0 0.0 0.0 0.00 0.00 0.00 56 1010.7
20260506091200 69 0 0.0 0.0 0.00 0.00 0.00 56 1010.7
20260506091122 69 0 0.0 0.0 0.00 0.00 0.00 55 1010.7
20260506091053 69 0 0.0 0.0 0.00 0.00 0.00 54 1010.7
20260506091046 69 0 0.0 0.0 0.00 0.00 0.00 54 1010.7
20260506091002 69 0 0.0 0.0 0.00 0.00 0.00 54 1010.7
20260506090930 68 0 0.0 0.0 0.00 0.00 0.00 54 1010.7
20260506090856 69 0 0.0 0.0 0.00 0.00 0.00 53 1010.8
20260506090850 69 0 0.0 0.0 0.00 0.00 0.00 53 1010.8
20260506090816 69 0 0.0 0.0 0.00 0.00 0.00 53 1010.7
20260506090749 69 0 0.0 0.0 0.00 0.00 0.00 54 101.0
20260506090742 69 0 0.0 0.0 0.00 0.00 0.00 54 1010.7
20260506090714 68 0 0.0 0.0 0.00 0.00 0.00 53 1010.7
20260506090708 68 0 0.0 0.0 0.00 0.00 0.00 53 1010.7
20260506090637 69 0 0.0 0.0 0.00 0.00 0.00 53 101.0
20260506090630 69 0 0.0 0.0 0.00 0.00 0.00 53 1010.6
20260506090600 68 0 0.0 0.0 0.00 0.00 0.00 54 1010.7
20260506090554 68 0 0.0 0.0 0.00 0.00 0.00 54 1010.7
20260506090524 68 0 0.0 0.0 0.00 0.00 0.00 56 1010.7
20260506090517 68 0 0.0 0.0 0.00 0.00 0.00 56 1010.7
20260506090446 68 0 0.0 0.0 0.00 0.00 0.00 54 1010.7
20260506090418 68 0 0.0 0.0 0.00 0.00 0.00 53 1010.7
20260506090412 68 0 0.0 0.0 0.00 0.00 0.00 53 1010.7
20260506090336 68 0 0.0 0.0 0.00 0.00 0.00 53 1010.6
20260506090300 68 0 0.0 0.0 0.00 0.00 0.00 53 1010.6
20260506090238 69 0 0.0 0.0 0.00 0.00 0.00 53 1010.7
20260506090232 69 0 0.0 0.0 0.00 0.00 0.00 53 1010.7
20260506090154 69 0 0.0 0.0 0.00 0.00 0.00 54 1010.7
20260506090120 69 0 0.0 0.0 0.00 0.00 0.00 54 1010.7
20260506090056 69 0 0.0 0.0 0.00 0.00 0.00 53 1010.7
20260506090050 69 0 0.0 0.0 0.00 0.00 0.00 53 1010.7
20260506090016 69 0 0.0 0.0 0.00 0.00 0.00 53 1010.7
20260506085948 69 0 0.0 0.0 0.00 0.00 0.00 53 1010.7
20260506085942 69 0 0.0 0.0 0.00 0.00 0.00 53 1010.7
20260506085910 69 0 0.0 0.0 0.00 0.00 0.00 52 1010.7
20260506085834 70 0 0.0 0.0 0.00 0.00 0.00 55 1010.6
20260506085800 69 0 0.0 0.0 0.00 0.00 0.00 55 1010.6
20260506085730 70 0 0.0 0.0 0.00 0.00 0.00 54 1010.6
20260506085724 70 0 0.0 0.0 0.00 0.00 0.00 54 1010.6
20260506085652 69 0 0.0 0.0 0.00 0.00 0.00 56 1010.6
20260506085622 69 0 0.0 0.0 0.00 0.00 0.00 55 1010.6
20260506085616 69 0 0.0 0.0 0.00 0.00 0.00 55 1010.6
20260506085546 69 0 0.0 0.0 0.00 0.00 0.00 55 1010.7
20260506085540 69 0 0.0 0.0 0.00 0.00 0.00 55 1010.7
20260506085510 69 0 0.0 0.0 0.00 0.00 0.00 57 1010.7
20260506085504 69 0 0.0 0.0 0.00 0.00 0.00 57 1010.7
20260506085436 69 0 0.0 0.0 0.00 0.00 0.00 59 1010.7
20260506085430 69 0 0.0 0.0 0.00 0.00 0.00 59 1010.7
20260506085358 69 0 0.0 0.0 0.00 0.00 0.00 60 1010.7
20260506085324 68 0 0.0 0.0 0.00 0.00 0.00 60 1010.6
20260506085256 68 0 0.0 0.0 0.00 0.00 0.00 59 1010.6
20260506085250 68 0 0.0 0.0 0.00 0.00 0.00 59 1010.6
20260506085220 68 0 0.0 0.0 0.00 0.00 0.00 60 1010.6
20260506085214 68 0 0.0 0.0 0.00 0.00 0.00 60 1010.6
20260506085142 67 0 0.0 0.0 0.00 0.00 0.00 59 1010.6
20260506085136 67 0 0.0 0.0 0.00 0.00 0.00 59 1010.6
20260506085058 67 0 0.0 0.0 0.00 0.00 0.00 59 1010.6
20260506085024 67 0 0.0 0.0 0.00 0.00 0.00 59 1010.6
20260506085002 67 0 0.0 0.0 0.00 0.00 0.00 61 1010.6
20260506084956 67 0 0.0 0.0 0.00 0.00 0.00 61 1010.6
20260506084934 67 0 0.0 0.0 0.00 0.00 0.00 60 1010.6
20260506084928 67 0 0.0 0.0 0.00 0.00 0.00 60 1010.6
20260506084850 67 0 0.0 0.0 0.00 0.00 0.00 59 1010.6
20260506084812 66 0 0.0 0.0 0.00 0.00 0.00 60 1010.6
20260506084746 66 0 0.0 0.0 0.00 0.00 0.00 60 1010.6
20260506084740 66 0 0.0 0.0 0.00 0.00 0.00 60 1010.6
20260506084706 65 0 0.0 0.0 0.00 0.00 0.00 61 1010.6
20260506084700 65 0 0.0 0.0 0.00 0.00 0.00 61 1010.6
20260506084630 66 0 0.0 0.0 0.00 0.00 0.00 60 1010.6
20260506084558 66 0 0.0 0.0 0.00 0.00 0.00 60 1010.7
20260506084524 66 0 0.0 0.0 0.00 0.00 0.00 62 1010.7
20260506084442 66 0 0.0 0.0 0.00 0.00 0.00 61 1010.7
20260506084418 66 0 0.0 0.0 0.00 0.00 0.00 61 1010.7
20260506084412 66 0 0.0 0.0 0.00 0.00 0.00 61 1010.7
20260506084344 66 0 0.0 0.0 0.00 0.00 0.00 61 1010.7
20260506084337 66 0 0.0 0.0 0.00 0.00 0.00 61 1010.7
20260506084306 66 0 0.0 0.0 0.00 0.00 0.00 63 1010.7
20260506084244 66 0 0.0 0.0 0.00 0.00 0.00 66 1010.7
20260506084237 66 0 0.0 0.0 0.00 0.00 0.00 66 1010.7
20260506084214 66 0 0.0 0.0 0.00 0.00 0.00 65 1010.7
20260506084144 66 0 0.0 0.0 0.00 0.00 0.00 65 1010.7
20260506084137 66 0 0.0 0.0 0.00 0.00 0.00 65 1010.7
20260506084110 65 0 0.0 0.0 0.00 0.00 0.00 68 1010.7
20260506084103 65 0 0.0 0.0 0.00 0.00 0.00 68 1010.7
20260506084032 65 0 0.0 0.0 0.00 0.00 0.00 66 1010.7
20260506084025 65 0 0.0 0.0 0.00 0.00 0.00 66 1010.7
20260506083956 65 0 0.0 0.0 0.00 0.00 0.00 66 1010.8
20260506083949 65 0 0.0 0.0 0.00 0.00 0.00 66 1010.8
20260506083913 64 0 0.0 0.0 0.00 0.00 0.00 67 1010.8
20260506083833 64 0 0.0 0.0 0.00 0.00 0.00 65 1010.7
20260506083747 65 0 0.0 0.0 0.00 0.00 0.00 65 1010.8
20260506083716 65 0 0.0 0.0 0.00 0.00 0.00 65 1010.7
20260506083709 65 0 0.0 0.0 0.00 0.00 0.00 65 1010.7
20260506083645 65 0 0.0 0.0 0.00 0.00 0.00 67 1010.7
20260506083630 65 0 0.0 0.0 0.00 0.00 0.00 66 1010.7
20260506083609 65 0 0.0 0.0 0.00 0.00 0.00 66 1010.7
20260506083603 65 0 0.0 0.0 0.00 0.00 0.00 66 1010.7
20260506083533 65 0 0.0 0.0 0.00 0.00 0.00 67 1010.8
20260506083527 65 0 0.0 0.0 0.00 0.00 0.00 67 1010.8
20260506083455 64 0 0.0 0.0 0.00 0.00 0.00 66 1010.7
20260506083449 64 0 0.0 0.0 0.00 0.00 0.00 66 1010.7
20260506083403 64 0 0.0 0.0 0.00 0.00 0.00 64 1010.7
20260506083329 65 0 0.0 0.0 0.00 0.00 0.00 64 1010.8
20260506083308 65 0 0.0 0.0 0.00 0.00 0.00 63 1010.8
20260506083235 65 0 0.0 0.0 0.00 0.00 0.00 63 1010.8
20260506083153 65 0 0.0 0.0 0.00 0.00 0.00 62 1010.8
20260506083147 65 0 0.0 0.0 0.00 0.00 0.00 62 1010.8
20260506083121 66 0 0.0 0.0 0.00 0.00 0.00 61 1010.7
20260506083041 66 0 0.0 0.0 0.00 0.00 0.00 59 1010.8
20260506083021 67 0 0.0 0.0 0.00 0.00 0.00 58 1010.8
20260506082957 67 0 0.0 0.0 0.00 0.00 0.00 57 1010.8
20260506082951 67 0 0.0 0.0 0.00 0.00 0.00 57 1010.8
20260506082931 68 0 0.0 0.0 0.00 0.00 0.00 56 1010.8
20260506082925 68 0 0.0 0.0 0.00 0.00 0.00 56 1010.8
20260506082901 68 0 0.0 0.0 0.00 0.00 0.00 55 1010.8
20260506082848 69 0 0.0 0.0 0.00 0.00 0.00 55 1010.8
20260506082841 69 0 0.0 0.0 0.00 0.00 0.00 55 1010.8
20260506082807 69 0 0.0 0.0 0.00 0.00 0.00 55 1010.8
20260506082731 69 0 0.0 0.0 0.00 0.00 0.00 54 1010.8
20260506082657 69 0 0.0 0.0 0.00 0.00 0.00 53 1010.9
20260506082623 69 0 0.0 0.0 0.00 0.00 0.00 56 1010.9
20260506082548 69 0 0.0 0.0 0.00 0.00 0.00 57 1010.8
20260506082541 69 0 0.0 0.0 0.00 0.00 0.00 57 1010.8
20260506082523 69 0 0.0 0.0 0.00 0.00 0.00 56 1010.9
20260506082517 69 0 0.0 0.0 0.00 0.00 0.00 56 1010.9
20260506082441 69 0 0.0 0.0 0.00 0.00 0.00 58 1010.8
20260506082415 69 0 0.0 0.0 0.00 0.00 0.00 56 1010.9
20260506082409 69 0 0.0 0.0 0.00 0.00 0.00 56 1010.9
20260506082341 69 0 0.0 0.0 0.00 0.00 0.00 57 1010.9
20260506082335 69 0 0.0 0.0 0.00 0.00 0.00 57 1010.9
20260506082257 68 0 0.0 0.0 0.00 0.00 0.00 59 1010.9
20260506082221 68 0 0.0 0.0 0.00 0.00 0.00 60 1010.9
20260506082153 68 0 0.0 0.0 0.00 0.00 0.00 61 1010.9
20260506082147 68 0 0.0 0.0 0.00 0.00 0.00 61 1010.9
20260506082119 67 0 0.0 0.0 0.00 0.00 0.00 65 1010.9
20260506082113 67 0 0.0 0.0 0.00 0.00 0.00 65 1010.9
20260506082056 66 0 0.0 0.0 0.00 0.00 0.00 67 1010.8
20260506082037 67 0 0.0 0.0 0.00 0.00 0.00 65 1010.9
20260506081959 66 0 0.0 0.0 0.00 0.00 0.00 67 1010.8
20260506081931 66 0 0.0 0.0 0.00 0.00 0.00 66 1010.9
20260506081925 66 0 0.0 0.0 0.00 0.00 0.00 66 1010.9
20260506081851 65 0 0.0 0.0 0.00 0.00 0.00 66 1010.9
20260506081819 65 0 0.0 0.0 0.00 0.00 0.00 65 1011.0
20260506081813 65 0 0.0 0.0 0.00 0.00 0.00 65 1011.0
20260506081735 65 0 0.0 0.0 0.00 0.00 0.00 66 1010.9
20260506081705 64 0 0.0 0.0 0.00 0.00 0.00 65 1010.9
20260506081659 64 0 0.0 0.0 0.00 0.00 0.00 65 1010.9
20260506081621 64 0 0.0 0.0 0.00 0.00 0.00 64 1010.9
20260506081545 65 0 0.0 0.0 0.00 0.00 0.00 62 1010.9
20260506081539 65 0 0.0 0.0 0.00 0.00 0.00 62 1010.9
20260506081519 65 0 0.0 0.0 0.00 0.00 0.00 61 1010.9
20260506081513 65 0 0.0 0.0 0.00 0.00 0.00 61 1010.9
20260506081443 66 0 0.0 0.0 0.00 0.00 0.00 60 1010.8
20260506081423 66 0 0.0 0.0 0.00 0.00 0.00 59 1010.8
20260506081417 66 0 0.0 0.0 0.00 0.00 0.00 59 1010.8
20260506081401 66 0 0.0 0.0 0.00 0.00 0.00 57 1010.9
20260506081355 66 0 0.0 0.0 0.00 0.00 0.00 57 1010.9
20260506081331 67 0 0.0 0.0 0.00 0.00 0.00 59 1010.8
20260506081325 67 0 0.0 0.0 0.00 0.00 0.00 59 1010.8
20260506081253 67 0 0.0 0.0 0.00 0.00 0.00 58 1010.8
20260506081219 67 0 0.0 0.0 0.00 0.00 0.00 61 1010.9
20260506081149 67 0 0.0 0.0 0.00 0.00 0.00 61 1010.8
20260506081142 67 0 0.0 0.0 0.00 0.00 0.00 61 1010.8
20260506081107 66 0 0.0 0.0 0.00 0.00 0.00 62 1010.9
20260506081033 66 0 0.0 0.0 0.00 0.00 0.00 63 1010.8
20260506081003 66 0 0.0 0.0 0.00 0.00 0.00 60 1010.8
20260506080957 66 0 0.0 0.0 0.00 0.00 0.00 60 1010.8
20260506080927 66 0 0.0 0.0 0.00 0.00 0.00 60 1010.9
20260506080920 66 0 0.0 0.0 0.00 0.00 0.00 60 1010.9
20260506080847 66 0 0.0 0.0 0.00 0.00 0.00 60 1010.9
20260506080840 66 0 0.0 0.0 0.00 0.00 0.00 60 1010.9
20260506080809 66 0 0.0 0.0 0.00 0.00 0.00 59 1010.8
20260506080802 66 0 0.0 0.0 0.00 0.00 0.00 59 1010.8
20260506080729 66 0 0.0 0.0 0.00 0.00 0.00 58 1010.9
20260506080703 66 0 0.0 0.0 0.00 0.00 0.00 58 1010.9
20260506080657 66 0 0.0 0.0 0.00 0.00 0.00 58 1010.9
20260506080631 67 0 0.0 0.0 0.00 0.00 0.00 58 1010.9
20260506080624 67 0 0.0 0.0 0.00 0.00 0.00 58 1010.9
20260506080559 67 0 0.0 0.0 0.00 0.00 0.00 58 1010.9
20260506080552 67 0 0.0 0.0 0.00 0.00 0.00 58 1010.9
20260506080523 67 0 0.0 0.0 0.00 0.00 0.00 57 1010.9
20260506080516 67 0 0.0 0.0 0.00 0.00 0.00 57 1010.9
20260506080449 67 0 0.0 0.0 0.00 0.00 0.00 57 1010.9
20260506080442 67 0 0.0 0.0 0.00 0.00 0.00 57 1010.9
20260506080415 67 0 0.0 0.0 0.00 0.00 0.00 57 1010.8
20260506080408 67 0 0.0 0.0 0.00 0.00 0.00 57 1010.8
20260506080335 67 0 0.0 0.0 0.00 0.00 0.00 59 1010.8
20260506080329 67 0 0.0 0.0 0.00 0.00 0.00 59 1010.8
20260506080301 67 0 0.0 0.0 0.00 0.00 0.00 58 1010.9
20260506080220 67 0 0.0 0.0 0.00 0.00 0.00 57 1010.8
20260506080146 67 0 0.0 0.0 0.00 0.00 0.00 57 1010.8
20260506080120 67 0 0.0 0.0 0.00 0.00 0.00 56 1010.8
20260506073520 67 0 0.0 0.0 0.00 0.00 0.00 58 1010.7
20260506073513 67 0 0.0 0.0 0.00 0.00 0.00 58 1010.7
20260506073448 68 0 0.0 0.0 0.00 0.00 0.00 57 1010.7
20260506073441 68 0 0.0 0.0 0.00 0.00 0.00 57 1010.7
20260506073405 68 0 0.0 0.0 0.00 0.00 0.00 57 1010.7
20260506073336 68 0 0.0 0.0 0.00 0.00 0.00 58 1010.7
20260506073329 68 0 0.0 0.0 0.00 0.00 0.00 58 1010.7
20260506073304 68 0 0.0 0.0 0.00 0.00 0.00 61 1010.7
20260506073257 68 0 0.0 0.0 0.00 0.00 0.00 61 1010.7
20260506073221 68 0 0.0 0.0 0.00 0.00 0.00 60 1010.7
20260506073143 67 0 0.0 0.0 0.00 0.00 0.00 60 1010.7
20260506073107 67 0 0.0 0.0 0.00 0.00 0.00 59 1010.8
20260506073042 67 0 0.0 0.0 0.00 0.00 0.00 60 1010.7
20260506073035 67 0 0.0 0.0 0.00 0.00 0.00 60 1010.7
20260506072957 67 0 0.0 0.0 0.00 0.00 0.00 59 1010.8
20260506072928 67 0 0.0 0.0 0.00 0.00 0.00 59 1010.8
20260506072921 67 0 0.0 0.0 0.00 0.00 0.00 59 1010.8
20260506072854 68 0 0.0 0.0 0.00 0.00 0.00 58 1010.8
20260506072847 68 0 0.0 0.0 0.00 0.00 0.00 58 1010.8
20260506072820 68 0 0.0 0.0 0.00 0.00 0.00 58 1010.8
20260506072813 68 0 0.0 0.0 0.00 0.00 0.00 58 1010.8
20260506072743 68 0 0.0 0.0 0.00 0.00 0.00 57 1010.8
20260506072711 68 0 0.0 0.0 0.00 0.00 0.00 58 1010.8
20260506072635 68 0 0.0 0.0 0.00 0.00 0.00 56 1010.8
20260506072605 68 0 0.0 0.0 0.00 0.00 0.00 56 1010.8
20260506072559 68 0 0.0 0.0 0.00 0.00 0.00 56 1010.8
20260506072533 68 0 0.0 0.0 0.00 0.00 0.00 57 1010.8
20260506072527 68 0 0.0 0.0 0.00 0.00 0.00 57 1010.8
20260506072457 69 0 0.0 0.0 0.00 0.00 0.00 55 1010.8
20260506072451 69 0 0.0 0.0 0.00 0.00 0.00 55 1010.8
20260506072421 69 0 0.0 0.0 0.00 0.00 0.00 55 1010.8
20260506072415 69 0 0.0 0.0 0.00 0.00 0.00 55 1010.8
20260506072341 69 0 0.0 0.0 0.00 0.00 0.00 56 1010.8
20260506072312 69 0 0.0 0.0 0.00 0.00 0.00 59 1010.8
20260506072306 69 0 0.0 0.0 0.00 0.00 0.00 59 1010.8
20260506072231 68 0 0.0 0.0 0.00 0.00 0.00 61 1010.8
20260506072159 68 0 0.0 0.0 0.00 0.00 0.00 62 1010.8
20260506072123 68 0 0.0 0.0 0.00 0.00 0.00 62 1010.8
20260506072055 67 0 0.0 0.0 0.00 0.00 0.00 62 1010.9
20260506072049 67 0 0.0 0.0 0.00 0.00 0.00 62 1010.9
20260506072017 67 0 0.0 0.0 0.00 0.00 0.00 62 1010.9
20260506072011 67 0 0.0 0.0 0.00 0.00 0.00 62 1010.9
20260506071939 66 0 0.0 0.0 0.00 0.00 0.00 62 1010.9
20260506071933 66 0 0.0 0.0 0.00 0.00 0.00 62 1010.9
20260506071901 66 0 0.0 0.0 0.00 0.00 0.00 62 1010.9
20260506071827 66 0 0.0 0.0 0.00 0.00 0.00 62 1010.8
20260506071752 66 0 0.0 0.0 0.00 0.00 0.00 61 1010.9
20260506071719 66 0 0.0 0.0 0.00 0.00 0.00 61 1010.9
20260506071651 67 0 0.0 0.0 0.00 0.00 0.00 60 1010.9
20260506071645 67 0 0.0 0.0 0.00 0.00 0.00 60 1010.9
20260506071613 67 0 0.0 0.0 0.00 0.00 0.00 60 1010.9
20260506071539 67 0 0.0 0.0 0.00 0.00 0.00 62 1010.9
20260506071501 67 0 0.0 0.0 0.00 0.00 0.00 62 1010.8
20260506071401 67 0 0.0 0.0 0.00 0.00 0.00 62 1010.8
20260506071355 67 0 0.0 0.0 0.00 0.00 0.00 62 1010.8
20260506071329 67 0 0.0 0.0 0.00 0.00 0.00 61 1010.8
20260506071323 67 0 0.0 0.0 0.00 0.00 0.00 61 1010.8
20260506071253 67 0 0.0 0.0 0.00 0.00 0.00 62 1010.8
20260506071247 67 0 0.0 0.0 0.00 0.00 0.00 62 1010.8
20260506071217 67 0 0.0 0.0 0.00 0.00 0.00 63 1010.8
20260506071139 67 0 0.0 0.0 0.00 0.00 0.00 62 1010.8
20260506071103 67 0 0.0 0.0 0.00 0.00 0.00 63 1010.8
20260506071029 66 0 0.0 0.0 0.00 0.00 0.00 63 1010.8
20260506070953 66 0 0.0 0.0 0.00 0.00 0.00 63 1010.8
20260506070919 66 0 0.0 0.0 0.00 0.00 0.00 63 1010.7
20260506070841 66 0 0.0 0.0 0.00 0.00 0.00 62 1010.8
20260506070815 66 0 0.0 0.0 0.00 0.00 0.00 63 1010.7
20260506070809 66 0 0.0 0.0 0.00 0.00 0.00 63 1010.7
20260506070733 66 0 0.0 0.0 0.00 0.00 0.00 64 1010.8
20260506070707 66 0 0.0 0.0 0.00 0.00 0.00 64 1010.8
20260506070701 66 0 0.0 0.0 0.00 0.00 0.00 64 1010.8
20260506070623 66 0 0.0 0.0 0.00 0.00 0.00 63 1010.8
20260506070549 66 0 0.0 0.0 0.00 0.00 0.00 62 1010.8
20260506070523 66 0 0.0 0.0 0.00 0.00 0.00 62 1010.8
20260506070516 66 0 0.0 0.0 0.00 0.00 0.00 62 1010.8
20260506070445 66 0 0.0 0.0 0.00 0.00 0.00 62 1010.7
20260506070438 66 0 0.0 0.0 0.00 0.00 0.00 62 1010.7
20260506070411 66 0 0.0 0.0 0.00 0.00 0.00 62 1010.8
20260506070405 66 0 0.0 0.0 0.00 0.00 0.00 62 1010.8
20260506070337 66 0 0.0 0.0 0.00 0.00 0.00 62 1010.8
20260506070330 66 0 0.0 0.0 0.00 0.00 0.00 62 1010.8
20260506070257 66 0 0.0 0.0 0.00 0.00 0.00 65 1010.8
20260506070220 66 0 0.0 0.0 0.00 0.00 0.00 64 1010.8
20260506070149 65 0 0.0 0.0 0.00 0.00 0.00 65 1010.7
20260506070143 65 0 0.0 0.0 0.00 0.00 0.00 65 1010.7
20260506070115 65 0 0.0 0.0 0.00 0.00 0.00 65 1010.8
20260506070108 65 0 0.0 0.0 0.00 0.00 0.00 65 1010.8
20260506062512 65 0 0.0 0.0 0.00 0.00 0.00 71 1010.6
20260506062439 65 0 0.0 0.0 0.00 0.00 0.00 70 1010.6
20260506062405 65 0 0.0 0.0 0.00 0.00 0.00 71 1010.5
20260506062333 65 0 0.0 0.0 0.00 0.00 0.00 72 1010.6
20260506062255 65 0 0.0 0.0 0.00 0.00 0.00 71 1010.6
20260506062219 65 0 0.0 0.0 0.00 0.00 0.00 71 1010.5
20260506062119 64 0 0.0 0.0 0.00 0.00 0.00 71 1010.6
20260506062109 65 0 0.0 0.0 0.00 0.00 0.00 72 1010.6
20260506062037 65 0 0.0 0.0 0.00 0.00 0.00 71 1010.6
20260506061959 64 0 0.0 0.0 0.00 0.00 0.00 71 1010.6
20260506061925 64 0 0.0 0.0 0.00 0.00 0.00 70 1010.6
20260506061851 64 0 0.0 0.0 0.00 0.00 0.00 69 1010.6
20260506061813 64 0 0.0 0.0 0.00 0.00 0.00 71 1010.6
20260506061737 64 0 0.0 0.0 0.00 0.00 0.00 71 1010.6
20260506061701 64 0 0.0 0.0 0.00 0.00 0.00 71 1010.6
20260506061629 64 0 0.0 0.0 0.00 0.00 0.00 71 1010.6
20260506061553 64 0 0.0 0.0 0.00 0.00 0.00 70 1010.6
20260506061521 64 0 0.0 0.0 0.00 0.00 0.00 69 1010.6
20260506061445 64 0 0.0 0.0 0.00 0.00 0.00 69 1010.6
20260506061407 64 0 0.0 0.0 0.00 0.00 0.00 71 1010.6
20260506061333 64 0 0.0 0.0 0.00 0.00 0.00 72 1010.6
20260506061257 64 0 0.0 0.0 0.00 0.00 0.00 72 1010.6
20260506061223 64 0 0.0 0.0 0.00 0.00 0.00 71 1010.6
20260506061151 64 0 0.0 0.0 0.00 0.00 0.00 71 1010.6
20260506061113 64 0 0.0 0.0 0.00 0.00 0.00 70 1010.5
20260506061039 64 0 0.0 0.0 0.00 0.00 0.00 69 1010.5
20260506061005 64 0 0.0 0.0 0.00 0.00 0.00 69 1010.5
20260506060931 64 0 0.0 0.0 0.00 0.00 0.00 70 1010.5
20260506060855 64 0 0.0 0.0 0.00 0.00 0.00 69 1010.5
20260506060819 64 0 0.0 0.0 0.00 0.00 0.00 72 1010.6
20260506060741 64 0 0.0 0.0 0.00 0.00 0.00 72 1010.5
20260506060707 64 0 0.0 0.0 0.00 0.00 0.00 72 1010.5
20260506060631 64 0 0.0 0.0 0.00 0.00 0.00 71 1010.5
20260506060557 65 0 0.0 0.0 0.00 0.00 0.00 72 1010.6
20260506060523 64 0 0.0 0.0 0.00 0.00 0.00 73 1010.6
20260506060445 64 0 0.0 0.0 0.00 0.00 0.00 73 1010.6
20260506060411 64 0 0.0 0.0 0.00 0.00 0.00 73 1010.5
20260506060339 64 0 0.0 0.0 0.00 0.00 0.00 75 1010.5
20260506060305 64 0 0.0 0.0 0.00 0.00 0.00 79 1010.5
20260506060225 63 0 0.0 0.0 0.00 0.00 0.00 77 1010.5
20260506060151 63 0 0.0 0.0 0.00 0.00 0.00 77 1010.5
20260506060115 63 0 0.0 0.0 0.00 0.00 0.00 79 1010.5